Wetterdaten: Dienstag, 18.09.2018
Datum Zeit Temp. Aussen Temp. o. S. +5cm Feuchte Auss Luftdruck Regen Sonnenschein Regendauer Solar Windben Empfang
18.09.2018 00:00 16,1 C 15,6 C 14,4 C 72 % 1012,5 hPa 0,0 l/m 0 min 0 min 0 W/m 6,8 km/h (2 Bft) 100,00 %
18.09.2018 00:02 16,1 C 16,1 C 14,4 C 72 % 1012,6 hPa 0,0 l/m 0 min 0 min 0 W/m 2,3 km/h (1 Bft) 97,30 %
18.09.2018 00:04 16,1 C 15,6 C 14,4 C 72 % 1012,6 hPa 0,0 l/m 0 min 0 min 0 W/m 6,8 km/h (2 Bft) 100,00 %
18.09.2018 00:08 16,1 C 15,6 C 15,0 C 71 % 1012,5 hPa 0,0 l/m 0 min 0 min 0 W/m 4,5 km/h (1 Bft) 100,00 %
18.09.2018 00:10 16,1 C 15,6 C 15,0 C 71 % 1012,5 hPa 0,0 l/m 0 min 0 min 0 W/m 6,8 km/h (2 Bft) 100,00 %
18.09.2018 00:12 16,1 C 15,6 C 15,0 C 71 % 1012,5 hPa 0,0 l/m 0 min 0 min 0 W/m 6,8 km/h (2 Bft) 100,00 %
18.09.2018 00:14 16,1 C 15,6 C 15,0 C 71 % 1012,5 hPa 0,0 l/m 0 min 0 min 0 W/m 6,8 km/h (2 Bft) 100,00 %
18.09.2018 00:16 16,1 C 16,1 C 15,0 C 70 % 1012,5 hPa 0,0 l/m 0 min 0 min 0 W/m 6,8 km/h (2 Bft) 97,87 %
18.09.2018 00:18 16,1 C 16,1 C 15,0 C 70 % 1012,5 hPa 0,0 l/m 0 min 0 min 0 W/m 6,8 km/h (2 Bft) 100,00 %
18.09.2018 00:20 16,2 C 15,6 C 15,0 C 70 % 1012,5 hPa 0,0 l/m 0 min 0 min 0 W/m 4,5 km/h (1 Bft) 100,00 %
18.09.2018 00:22 16,2 C 16,1 C 15,0 C 70 % 1012,5 hPa 0,0 l/m 0 min 0 min 0 W/m 6,8 km/h (2 Bft) 100,00 %
18.09.2018 00:24 16,2 C 16,1 C 15,0 C 70 % 1012,5 hPa 0,0 l/m 0 min 0 min 0 W/m 4,5 km/h (1 Bft) 100,00 %
18.09.2018 00:26 16,2 C 16,1 C 15,0 C 69 % 1012,5 hPa 0,0 l/m 0 min 0 min 0 W/m 9,0 km/h (2 Bft) 100,00 %
18.09.2018 00:28 16,2 C 16,1 C 15,0 C 69 % 1012,5 hPa 0,0 l/m 0 min 0 min 0 W/m 6,8 km/h (2 Bft) 97,87 %
18.09.2018 00:30 16,2 C 16,1 C 15,0 C 69 % 1012,5 hPa 0,0 l/m 0 min 0 min 0 W/m 6,8 km/h (2 Bft) 97,83 %
18.09.2018 00:32 16,2 C 16,1 C 15,0 C 69 % 1012,4 hPa 0,0 l/m 0 min 0 min 0 W/m 4,5 km/h (1 Bft) 97,87 %
18.09.2018 00:34 16,2 C 16,1 C 15,0 C 69 % 1012,5 hPa 0,0 l/m 0 min 0 min 0 W/m 6,8 km/h (2 Bft) 100,00 %
18.09.2018 00:38 16,2 C 16,1 C 15,0 C 68 % 1012,4 hPa 0,0 l/m 0 min 0 min 0 W/m 6,8 km/h (2 Bft) 98,95 %
18.09.2018 00:40 16,2 C 16,1 C 15,0 C 68 % 1012,4 hPa 0,0 l/m 0 min 0 min 0 W/m 2,3 km/h (1 Bft) 97,83 %
18.09.2018 00:42 16,2 C 16,1 C 15,0 C 68 % 1012,3 hPa 0,0 l/m 0 min 0 min 0 W/m 6,8 km/h (2 Bft) 100,00 %
18.09.2018 00:44 16,2 C 15,6 C 15,0 C 68 % 1012,4 hPa 0,0 l/m 0 min 0 min 0 W/m 4,5 km/h (1 Bft) 100,00 %
18.09.2018 00:46 16,2 C 15,6 C 15,0 C 68 % 1012,2 hPa 0,0 l/m 0 min 0 min 0 W/m 9,0 km/h (2 Bft) 97,87 %
18.09.2018 00:48 16,3 C 15,6 C 15,0 C 69 % 1012,3 hPa 0,0 l/m 0 min 0 min 0 W/m 6,8 km/h (2 Bft) 97,87 %
18.09.2018 00:50 16,3 C 15,6 C 15,0 C 69 % 1012,3 hPa 0,0 l/m 0 min 0 min 0 W/m 9,0 km/h (2 Bft) 95,74 %
18.09.2018 00:52 16,3 C 15,6 C 15,0 C 68 % 1012,3 hPa 0,0 l/m 0 min 0 min 0 W/m 6,8 km/h (2 Bft) 95,74 %
18.09.2018 00:54 16,3 C 15,6 C 15,0 C 69 % 1012,3 hPa 0,0 l/m 0 min 0 min 0 W/m 9,0 km/h (2 Bft) 95,65 %
18.09.2018 00:56 16,3 C 15,6 C 15,0 C 68 % 1012,3 hPa 0,0 l/m 0 min 0 min 0 W/m 6,8 km/h (2 Bft) 93,62 %
18.09.2018 00:58 16,3 C 15,6 C 15,0 C 68 % 1012,3 hPa 0,0 l/m 0 min 0 min 0 W/m 9,0 km/h (2 Bft) 91,49 %
18.09.2018 01:00 16,3 C 15,6 C 15,0 C 68 % 1012,2 hPa 0,0 l/m 0 min 0 min 0 W/m 6,8 km/h (2 Bft) 93,62 %
18.09.2018 01:02 16,3 C 15,6 C 15,0 C 68 % 1012,1 hPa 0,0 l/m 0 min 0 min 0 W/m 6,8 km/h (2 Bft) 91,67 %
18.09.2018 01:04 16,3 C 15,6 C 15,0 C 68 % 1012,1 hPa 0,0 l/m 0 min 0 min 0 W/m 4,5 km/h (1 Bft) 89,13 %
18.09.2018 01:08 16,3 C 15,6 C 15,0 C 69 % 1012,1 hPa 0,0 l/m 0 min 0 min 0 W/m 6,8 km/h (2 Bft) 92,71 %
18.09.2018 01:10 16,3 C 15,6 C 15,0 C 68 % 1012,1 hPa 0,0 l/m 0 min 0 min 0 W/m 6,8 km/h (2 Bft) 93,62 %
18.09.2018 01:12 16,3 C 15,6 C 15,0 C 68 % 1012,1 hPa 0,0 l/m 0 min 0 min 0 W/m 6,8 km/h (2 Bft) 93,62 %
18.09.2018 01:14 16,3 C 15,6 C 15,0 C 68 % 1012,1 hPa 0,0 l/m 0 min 0 min 0 W/m 4,5 km/h (1 Bft) 91,49 %
18.09.2018 01:16 16,3 C 15,6 C 15,0 C 68 % 1012,1 hPa 0,0 l/m 0 min 0 min 0 W/m 9,0 km/h (2 Bft) 89,13 %
18.09.2018 01:18 16,3 C 15,6 C 15,0 C 68 % 1012,0 hPa 0,0 l/m 0 min 0 min 0 W/m 6,8 km/h (2 Bft) 93,62 %
18.09.2018 01:20 16,3 C 15,6 C 15,0 C 68 % 1012,0 hPa 0,0 l/m 0 min 0 min 0 W/m 4,5 km/h (1 Bft) 93,62 %
18.09.2018 01:22 16,2 C 15,6 C 15,0 C 68 % 1012,0 hPa 0,0 l/m 0 min 0 min 0 W/m 6,8 km/h (2 Bft) 93,62 %
18.09.2018 01:24 16,2 C 15,6 C 15,0 C 68 % 1012,0 hPa 0,0 l/m 0 min 0 min 0 W/m 6,8 km/h (2 Bft) 93,62 %
18.09.2018 01:26 16,2 C 15,6 C 15,0 C 68 % 1011,9 hPa 0,0 l/m 0 min 0 min 0 W/m 9,0 km/h (2 Bft) 95,74 %
18.09.2018 01:28 16,2 C 15,6 C 15,0 C 68 % 1011,9 hPa 0,0 l/m 0 min 0 min 0 W/m 6,8 km/h (2 Bft) 91,49 %
18.09.2018 01:30 16,2 C 15,6 C 15,0 C 68 % 1011,9 hPa 0,0 l/m 0 min 0 min 0 W/m 6,8 km/h (2 Bft) 95,65 %
18.09.2018 01:32 16,2 C 15,6 C 15,0 C 69 % 1011,9 hPa 0,0 l/m 0 min 0 min 0 W/m 6,8 km/h (2 Bft) 93,75 %
18.09.2018 01:34 16,2 C 15,6 C 15,0 C 69 % 1011,8 hPa 0,0 l/m 0 min 0 min 0 W/m 6,8 km/h (2 Bft) 95,74 %
18.09.2018 01:36 16,2 C 15,6 C 15,0 C 69 % 1011,8 hPa 0,0 l/m 0 min 0 min 0 W/m 4,5 km/h (1 Bft) 95,74 %
18.09.2018 01:38 16,2 C 15,6 C 15,0 C 69 % 1011,8 hPa 0,0 l/m 0 min 0 min 0 W/m 6,8 km/h (2 Bft) 95,65 %
18.09.2018 01:40 16,2 C 15,6 C 15,0 C 69 % 1011,8 hPa 0,0 l/m 0 min 0 min 0 W/m 6,8 km/h (2 Bft) 95,74 %
18.09.2018 01:42 16,2 C 15,6 C 15,0 C 69 % 1011,9 hPa 0,0 l/m 0 min 0 min 0 W/m 6,8 km/h (2 Bft) 95,74 %
18.09.2018 01:44 16,2 C 15,6 C 15,0 C 69 % 1011,9 hPa 0,0 l/m 0 min 0 min 0 W/m 6,8 km/h (2 Bft) 97,87 %
18.09.2018 01:46 16,2 C 15,6 C 15,0 C 69 % 1011,9 hPa 0,0 l/m 0 min 0 min 0 W/m 11,3 km/h (2 Bft) 97,87 %
18.09.2018 01:48 16,2 C 15,6 C 15,0 C 69 % 1011,9 hPa 0,0 l/m 0 min 0 min 0 W/m 4,5 km/h (1 Bft) 97,87 %
18.09.2018 01:50 16,2 C 15,6 C 15,0 C 69 % 1011,8 hPa 0,0 l/m 0 min 0 min 0 W/m 6,8 km/h (2 Bft) 95,65 %
18.09.2018 01:52 16,2 C 15,6 C 15,0 C 69 % 1011,8 hPa 0,0 l/m 0 min 0 min 0 W/m 9,0 km/h (2 Bft) 100,00 %
18.09.2018 01:54 16,2 C 15,6 C 15,0 C 69 % 1011,8 hPa 0,0 l/m 0 min 0 min 0 W/m 9,0 km/h (2 Bft) 100,00 %
18.09.2018 01:56 16,2 C 15,6 C 15,0 C 69 % 1011,8 hPa 0,0 l/m 0 min 0 min 0 W/m 6,8 km/h (2 Bft) 97,87 %
18.09.2018 01:58 16,2 C 15,6 C 15,0 C 69 % 1011,8 hPa 0,0 l/m 0 min 0 min 0 W/m 4,5 km/h (1 Bft) 97,87 %
18.09.2018 02:00 16,1 C 15,6 C 15,0 C 69 % 1011,9 hPa 0,0 l/m 0 min 0 min 0 W/m 9,0 km/h (2 Bft) 100,00 %
18.09.2018 02:02 16,1 C 15,6 C 15,0 C 69 % 1011,8 hPa 0,0 l/m 0 min 0 min 0 W/m 6,8 km/h (2 Bft) 100,00 %
18.09.2018 02:05 16,1 C 15,6 C 14,4 C 69 % 1011,8 hPa 0,0 l/m 0 min 0 min 0 W/m 6,8 km/h (2 Bft) 100,00 %
18.09.2018 02:12 16,1 C 15,6 C 14,4 C 70 % 1011,7 hPa 0,0 l/m 0 min 0 min 0 W/m 6,8 km/h (2 Bft) 100,00 %
18.09.2018 02:17 16,1 C 15,0 C 14,4 C 70 % 1011,6 hPa 0,0 l/m 0 min 0 min 0 W/m 6,8 km/h (2 Bft) 97,96 %
18.09.2018 02:18 16,1 C 15,0 C 14,4 C 70 % 1011,6 hPa 0,0 l/m 0 min 0 min 0 W/m 4,5 km/h (1 Bft) 100,00 %
18.09.2018 02:20 16,0 C 15,0 C 14,4 C 70 % 1011,6 hPa 0,0 l/m 0 min 0 min 0 W/m 11,3 km/h (2 Bft) 100,00 %
18.09.2018 02:22 16,0 C 15,0 C 14,4 C 70 % 1011,6 hPa 0,0 l/m 0 min 0 min 0 W/m 11,3 km/h (2 Bft) 100,00 %
18.09.2018 02:24 16,0 C 15,0 C 14,4 C 70 % 1011,6 hPa 0,0 l/m 0 min 0 min 0 W/m 4,5 km/h (1 Bft) 100,00 %
18.09.2018 02:26 16,0 C 15,0 C 14,4 C 70 % 1011,5 hPa 0,0 l/m 0 min 0 min 0 W/m 6,8 km/h (2 Bft) 97,87 %
18.09.2018 02:28 15,9 C 15,0 C 14,4 C 70 % 1011,5 hPa 0,0 l/m 0 min 0 min 0 W/m 6,8 km/h (2 Bft) 100,00 %
18.09.2018 02:30 15,9 C 15,0 C 14,4 C 70 % 1011,6 hPa 0,0 l/m 0 min 0 min 0 W/m 11,3 km/h (2 Bft) 100,00 %
18.09.2018 02:32 15,9 C 15,0 C 14,4 C 70 % 1011,5 hPa 0,0 l/m 0 min 0 min 0 W/m 9,0 km/h (2 Bft) 100,00 %
18.09.2018 02:34 15,9 C 15,0 C 14,4 C 71 % 1011,5 hPa 0,0 l/m 0 min 0 min 0 W/m 9,0 km/h (2 Bft) 100,00 %
18.09.2018 02:36 15,9 C 15,0 C 14,4 C 71 % 1011,5 hPa 0,0 l/m 0 min 0 min 0 W/m 6,8 km/h (2 Bft) 100,00 %
18.09.2018 02:38 15,9 C 15,0 C 14,4 C 71 % 1011,5 hPa 0,0 l/m 0 min 0 min 0 W/m 6,8 km/h (2 Bft) 100,00 %
18.09.2018 02:40 15,9 C 15,6 C 14,4 C 71 % 1011,5 hPa 0,0 l/m 0 min 0 min 0 W/m 11,3 km/h (2 Bft) 100,00 %
18.09.2018 02:42 15,9 C 15,0 C 14,4 C 71 % 1011,5 hPa 0,0 l/m 0 min 0 min 0 W/m 6,8 km/h (2 Bft) 95,65 %
18.09.2018 02:44 15,9 C 15,0 C 14,4 C 71 % 1011,5 hPa 0,0 l/m 0 min 0 min 0 W/m 6,8 km/h (2 Bft) 100,00 %
18.09.2018 02:46 15,9 C 15,0 C 14,4 C 71 % 1011,4 hPa 0,0 l/m 0 min 0 min 0 W/m 6,8 km/h (2 Bft) 100,00 %
18.09.2018 02:48 15,9 C 15,0 C 14,4 C 71 % 1011,5 hPa 0,0 l/m 0 min 0 min 0 W/m 11,3 km/h (2 Bft) 100,00 %
18.09.2018 02:50 15,8 C 15,0 C 14,4 C 71 % 1011,5 hPa 0,0 l/m 0 min 0 min 0 W/m 9,0 km/h (2 Bft) 100,00 %
18.09.2018 02:52 15,8 C 15,0 C 14,4 C 71 % 1011,4 hPa 0,0 l/m 0 min 0 min 0 W/m 9,0 km/h (2 Bft) 100,00 %
18.09.2018 02:54 15,8 C 15,0 C 14,4 C 72 % 1011,4 hPa 0,0 l/m 0 min 0 min 0 W/m 6,8 km/h (2 Bft) 100,00 %
18.09.2018 02:56 15,8 C 15,0 C 14,4 C 72 % 1011,4 hPa 0,0 l/m 0 min 0 min 0 W/m 9,0 km/h (2 Bft) 97,87 %
18.09.2018 02:58 15,8 C 15,0 C 14,4 C 72 % 1011,4 hPa 0,0 l/m 0 min 0 min 0 W/m 9,0 km/h (2 Bft) 100,00 %
18.09.2018 03:00 15,8 C 15,0 C 14,4 C 72 % 1011,4 hPa 0,0 l/m 0 min 0 min 0 W/m 11,3 km/h (2 Bft) 100,00 %
18.09.2018 03:02 15,8 C 15,0 C 14,4 C 72 % 1011,3 hPa 0,0 l/m 0 min 0 min 0 W/m 9,0 km/h (2 Bft) 100,00 %
18.09.2018 03:04 15,8 C 15,6 C 14,4 C 72 % 1011,3 hPa 0,0 l/m 0 min 0 min 0 W/m 9,0 km/h (2 Bft) 97,87 %
18.09.2018 03:06 15,8 C 15,6 C 14,4 C 72 % 1011,4 hPa 0,0 l/m 0 min 0 min 0 W/m 9,0 km/h (2 Bft) 100,00 %
18.09.2018 03:08 15,8 C 15,6 C 14,4 C 73 % 1011,4 hPa 0,0 l/m 0 min 0 min 0 W/m 11,3 km/h (2 Bft) 97,87 %
18.09.2018 03:10 15,8 C 15,6 C 14,4 C 73 % 1011,3 hPa 0,0 l/m 0 min 0 min 0 W/m 9,0 km/h (2 Bft) 97,87 %
18.09.2018 03:12 15,8 C 15,6 C 14,4 C 73 % 1011,3 hPa 0,0 l/m 0 min 0 min 0 W/m 11,3 km/h (2 Bft) 97,87 %
18.09.2018 03:14 15,8 C 15,6 C 14,4 C 73 % 1011,3 hPa 0,0 l/m 0 min 0 min 0 W/m 11,3 km/h (2 Bft) 97,87 %
18.09.2018 03:16 15,8 C 15,6 C 14,4 C 73 % 1011,3 hPa 0,0 l/m 0 min 0 min 0 W/m 9,0 km/h (2 Bft) 97,87 %
18.09.2018 03:18 15,9 C 15,0 C 14,4 C 73 % 1011,2 hPa 0,0 l/m 0 min 0 min 0 W/m 11,3 km/h (2 Bft) 97,83 %
18.09.2018 03:20 15,8 C 15,0 C 14,4 C 73 % 1011,2 hPa 0,0 l/m 0 min 0 min 0 W/m 9,0 km/h (2 Bft) 100,00 %
18.09.2018 03:22 15,9 C 15,0 C 14,4 C 73 % 1011,3 hPa 0,0 l/m 0 min 0 min 0 W/m 9,0 km/h (2 Bft) 97,87 %
18.09.2018 03:24 15,9 C 15,0 C 14,4 C 73 % 1011,2 hPa 0,0 l/m 0 min 0 min 0 W/m 11,3 km/h (2 Bft) 95,74 %
18.09.2018 03:26 15,9 C 15,0 C 14,4 C 74 % 1011,2 hPa 0,0 l/m 0 min 0 min 0 W/m 6,8 km/h (2 Bft) 97,87 %
18.09.2018 03:28 15,9 C 15,0 C 14,4 C 74 % 1011,2 hPa 0,0 l/m 0 min 0 min 0 W/m 9,0 km/h (2 Bft) 97,83 %
18.09.2018 03:30 15,9 C 15,0 C 14,4 C 74 % 1011,2 hPa 0,0 l/m 0 min 0 min 0 W/m 11,3 km/h (2 Bft) 97,87 %
18.09.2018 03:32 15,8 C 15,0 C 14,4 C 74 % 1011,2 hPa 0,0 l/m 0 min 0 min 0 W/m 9,0 km/h (2 Bft) 97,87 %
18.09.2018 03:34 15,8 C 15,0 C 14,4 C 74 % 1011,2 hPa 0,0 l/m 0 min 0 min 0 W/m 11,3 km/h (2 Bft) 97,87 %
18.09.2018 03:36 15,8 C 15,0 C 14,4 C 74 % 1011,2 hPa 0,0 l/m 0 min 0 min 0 W/m 9,0 km/h (2 Bft) 95,74 %
18.09.2018 03:38 15,8 C 15,0 C 14,4 C 74 % 1011,2 hPa 0,0 l/m 0 min 0 min 0 W/m 9,0 km/h (2 Bft) 95,74 %
18.09.2018 03:40 15,8 C 15,0 C 14,4 C 74 % 1011,2 hPa 0,0 l/m 0 min 0 min 0 W/m 6,8 km/h (2 Bft) 95,65 %
18.09.2018 03:42 15,8 C 15,0 C 14,4 C 74 % 1011,1 hPa 0,0 l/m 0 min 0 min 0 W/m 9,0 km/h (2 Bft) 95,74 %
18.09.2018 03:44 15,8 C 15,0 C 14,4 C 75 % 1011,1 hPa 0,0 l/m 0 min 0 min 0 W/m 6,8 km/h (2 Bft) 95,74 %
18.09.2018 03:46 15,8 C 15,0 C 14,4 C 75 % 1011,1 hPa 0,0 l/m 0 min 0 min 0 W/m 9,0 km/h (2 Bft) 95,74 %
18.09.2018 03:48 15,8 C 15,0 C 14,4 C 75 % 1011,1 hPa 0,0 l/m 0 min 0 min 0 W/m 6,8 km/h (2 Bft) 95,74 %
18.09.2018 03:50 15,8 C 15,0 C 14,4 C 75 % 1011,1 hPa 0,0 l/m 0 min 0 min 0 W/m 11,3 km/h (2 Bft) 97,87 %
18.09.2018 03:52 15,8 C 15,0 C 14,4 C 75 % 1011,1 hPa 0,0 l/m 0 min 0 min 0 W/m 6,8 km/h (2 Bft) 93,48 %
18.09.2018 03:54 15,8 C 15,0 C 14,4 C 75 % 1011,1 hPa 0,0 l/m 0 min 0 min 0 W/m 9,0 km/h (2 Bft) 93,62 %
18.09.2018 03:56 15,8 C 15,0 C 14,4 C 75 % 1011,1 hPa 0,0 l/m 0 min 0 min 0 W/m 9,0 km/h (2 Bft) 93,62 %
18.09.2018 03:58 15,8 C 15,0 C 14,4 C 75 % 1011,1 hPa 0,0 l/m 0 min 0 min 0 W/m 11,3 km/h (2 Bft) 95,74 %
18.09.2018 04:00 15,8 C 15,0 C 14,4 C 75 % 1011,0 hPa 0,0 l/m 0 min 0 min 0 W/m 6,8 km/h (2 Bft) 95,74 %
18.09.2018 04:02 15,8 C 15,0 C 14,4 C 75 % 1011,0 hPa 0,0 l/m 0 min 0 min 0 W/m 6,8 km/h (2 Bft) 95,74 %
18.09.2018 04:04 15,8 C 15,0 C 14,4 C 75 % 1011,1 hPa 0,0 l/m 0 min 0 min 0 W/m 6,8 km/h (2 Bft) 95,65 %
18.09.2018 04:06 15,8 C 15,0 C 14,4 C 75 % 1011,0 hPa 0,0 l/m 0 min 0 min 0 W/m 6,8 km/h (2 Bft) 95,74 %
18.09.2018 04:08 15,8 C 15,0 C 14,4 C 75 % 1011,0 hPa 0,0 l/m 0 min 0 min 0 W/m 11,3 km/h (2 Bft) 93,62 %
18.09.2018 04:10 15,8 C 15,0 C 14,4 C 75 % 1011,0 hPa 0,0 l/m 0 min 0 min 0 W/m 9,0 km/h (2 Bft) 93,62 %
18.09.2018 04:12 15,8 C 15,6 C 14,4 C 75 % 1011,0 hPa 0,0 l/m 0 min 0 min 0 W/m 9,0 km/h (2 Bft) 97,87 %
18.09.2018 04:14 15,8 C 15,0 C 14,4 C 75 % 1011,0 hPa 0,0 l/m 0 min 0 min 0 W/m 9,0 km/h (2 Bft) 97,87 %
18.09.2018 04:16 15,8 C 15,0 C 14,4 C 75 % 1010,9 hPa 0,0 l/m 0 min 0 min 0 W/m 6,8 km/h (2 Bft) 97,83 %
18.09.2018 04:18 15,8 C 15,0 C 14,4 C 75 % 1011,0 hPa 0,0 l/m 0 min 0 min 0 W/m 9,0 km/h (2 Bft) 97,87 %
18.09.2018 04:20 15,8 C 15,0 C 14,4 C 76 % 1011,0 hPa 0,0 l/m 0 min 0 min 0 W/m 11,3 km/h (2 Bft) 95,74 %
18.09.2018 04:22 15,8 C 15,0 C 14,4 C 76 % 1010,9 hPa 0,0 l/m 0 min 0 min 0 W/m 9,0 km/h (2 Bft) 97,87 %
18.09.2018 04:24 15,8 C 15,0 C 14,4 C 76 % 1011,0 hPa 0,0 l/m 0 min 0 min 0 W/m 4,5 km/h (1 Bft) 97,87 %
18.09.2018 04:26 15,8 C 15,0 C 14,4 C 76 % 1011,0 hPa 0,0 l/m 0 min 0 min 0 W/m 6,8 km/h (2 Bft) 100,00 %
18.09.2018 04:28 15,8 C 15,0 C 14,4 C 76 % 1010,8 hPa 0,0 l/m 0 min 0 min 0 W/m 9,0 km/h (2 Bft) 97,87 %
18.09.2018 04:30 15,8 C 15,0 C 14,4 C 76 % 1010,8 hPa 0,0 l/m 0 min 0 min 0 W/m 6,8 km/h (2 Bft) 97,87 %
18.09.2018 04:32 15,8 C 15,0 C 14,4 C 76 % 1010,9 hPa 0,0 l/m 0 min 0 min 0 W/m 9,0 km/h (2 Bft) 95,74 %
18.09.2018 04:34 15,8 C 15,0 C 14,4 C 76 % 1010,8 hPa 0,0 l/m 0 min 0 min 0 W/m 9,0 km/h (2 Bft) 97,87 %
18.09.2018 04:36 15,8 C 15,0 C 14,4 C 76 % 1010,8 hPa 0,0 l/m 0 min 0 min 0 W/m 9,0 km/h (2 Bft) 97,87 %
18.09.2018 04:38 15,8 C 15,0 C 14,4 C 76 % 1010,8 hPa 0,0 l/m 0 min 0 min 0 W/m 9,0 km/h (2 Bft) 97,83 %
18.09.2018 04:40 15,8 C 15,0 C 14,4 C 76 % 1010,8 hPa 0,0 l/m 0 min 0 min 0 W/m 6,8 km/h (2 Bft) 97,87 %
18.09.2018 04:42 15,8 C 15,0 C 14,4 C 76 % 1010,8 hPa 0,0 l/m 0 min 0 min 0 W/m 11,3 km/h (2 Bft) 95,74 %
18.09.2018 04:44 15,8 C 15,0 C 14,4 C 76 % 1010,8 hPa 0,0 l/m 0 min 0 min 0 W/m 6,8 km/h (2 Bft) 97,87 %
18.09.2018 04:46 15,8 C 15,0 C 14,4 C 76 % 1010,7 hPa 0,0 l/m 0 min 0 min 0 W/m 9,0 km/h (2 Bft) 97,87 %
18.09.2018 04:48 15,8 C 15,0 C 14,4 C 76 % 1010,7 hPa 0,0 l/m 0 min 0 min 0 W/m 11,3 km/h (2 Bft) 95,74 %
18.09.2018 04:50 15,8 C 15,6 C 14,4 C 76 % 1010,7 hPa 0,0 l/m 0 min 0 min 0 W/m 13,5 km/h (3 Bft) 97,87 %
18.09.2018 04:52 15,8 C 15,6 C 14,4 C 76 % 1010,7 hPa 0,0 l/m 0 min 0 min 0 W/m 9,0 km/h (2 Bft) 97,83 %
18.09.2018 04:54 15,8 C 15,6 C 14,4 C 76 % 1010,7 hPa 0,0 l/m 0 min 0 min 0 W/m 13,5 km/h (3 Bft) 97,87 %
18.09.2018 04:56 15,8 C 15,6 C 14,4 C 76 % 1010,7 hPa 0,0 l/m 0 min 0 min 0 W/m 6,8 km/h (2 Bft) 97,87 %
18.09.2018 04:58 15,8 C 15,6 C 14,4 C 76 % 1010,7 hPa 0,0 l/m 0 min 0 min 0 W/m 6,8 km/h (2 Bft) 97,87 %
18.09.2018 05:00 15,8 C 15,6 C 14,4 C 76 % 1010,7 hPa 0,0 l/m 0 min 0 min 0 W/m 6,8 km/h (2 Bft) 97,87 %
18.09.2018 05:02 15,8 C 15,6 C 14,4 C 76 % 1010,7 hPa 0,0 l/m 0 min 0 min 0 W/m 9,0 km/h (2 Bft) 97,83 %
18.09.2018 05:04 15,8 C 15,6 C 14,4 C 76 % 1010,7 hPa 0,0 l/m 0 min 0 min 0 W/m 6,8 km/h (2 Bft) 95,74 %
18.09.2018 05:06 15,8 C 15,6 C 14,4 C 76 % 1010,6 hPa 0,0 l/m 0 min 0 min 0 W/m 9,0 km/h (2 Bft) 97,87 %
18.09.2018 05:08 15,8 C 15,6 C 14,4 C 76 % 1010,6 hPa 0,0 l/m 0 min 0 min 0 W/m 11,3 km/h (2 Bft) 97,87 %
18.09.2018 05:10 15,9 C 15,6 C 14,4 C 76 % 1010,6 hPa 0,0 l/m 0 min 0 min 0 W/m 9,0 km/h (2 Bft) 97,87 %
18.09.2018 05:12 15,9 C 15,6 C 14,4 C 76 % 1010,6 hPa 0,0 l/m 0 min 0 min 0 W/m 9,0 km/h (2 Bft) 97,92 %
18.09.2018 05:14 15,9 C 15,6 C 14,4 C 76 % 1010,5 hPa 0,0 l/m 0 min 0 min 0 W/m 6,8 km/h (2 Bft) 97,83 %
18.09.2018 05:16 15,9 C 15,6 C 14,4 C 76 % 1010,6 hPa 0,0 l/m 0 min 0 min 0 W/m 11,3 km/h (2 Bft) 97,87 %
18.09.2018 05:18 15,9 C 15,6 C 14,4 C 76 % 1010,6 hPa 0,0 l/m 0 min 0 min 0 W/m 13,5 km/h (3 Bft) 97,87 %
18.09.2018 05:20 15,9 C 15,6 C 14,4 C 76 % 1010,6 hPa 0,0 l/m 0 min 0 min 0 W/m 9,0 km/h (2 Bft) 97,87 %
18.09.2018 05:22 15,9 C 15,6 C 14,4 C 76 % 1010,6 hPa 0,0 l/m 0 min 0 min 0 W/m 9,0 km/h (2 Bft) 95,74 %
18.09.2018 05:24 15,9 C 15,6 C 14,4 C 76 % 1010,6 hPa 0,0 l/m 0 min 0 min 0 W/m 11,3 km/h (2 Bft) 97,87 %
18.09.2018 05:26 15,9 C 15,6 C 14,4 C 76 % 1010,6 hPa 0,0 l/m 0 min 0 min 0 W/m 13,5 km/h (3 Bft) 97,87 %
18.09.2018 05:28 15,9 C 15,6 C 15,0 C 76 % 1010,5 hPa 0,0 l/m 0 min 0 min 0 W/m 11,3 km/h (2 Bft) 97,83 %
18.09.2018 05:30 15,9 C 15,6 C 15,0 C 76 % 1010,5 hPa 0,0 l/m 0 min 0 min 0 W/m 9,0 km/h (2 Bft) 97,87 %
18.09.2018 05:32 15,9 C 15,6 C 15,0 C 76 % 1010,5 hPa 0,0 l/m 0 min 0 min 0 W/m 9,0 km/h (2 Bft) 97,87 %
18.09.2018 05:34 15,9 C 15,6 C 15,0 C 76 % 1010,6 hPa 0,0 l/m 0 min 0 min 0 W/m 11,3 km/h (2 Bft) 100,00 %
18.09.2018 05:36 16,0 C 15,6 C 15,0 C 76 % 1010,5 hPa 0,0 l/m 0 min 0 min 0 W/m 11,3 km/h (2 Bft) 100,00 %
18.09.2018 05:38 16,0 C 15,6 C 15,0 C 76 % 1010,6 hPa 0,0 l/m 0 min 0 min 0 W/m 6,8 km/h (2 Bft) 100,00 %
18.09.2018 05:40 16,0 C 15,6 C 15,0 C 76 % 1010,5 hPa 0,0 l/m 0 min 0 min 0 W/m 11,3 km/h (2 Bft) 100,00 %
18.09.2018 05:42 16,0 C 15,6 C 15,0 C 76 % 1010,5 hPa 0,0 l/m 0 min 0 min 0 W/m 11,3 km/h (2 Bft) 97,87 %
18.09.2018 05:44 16,0 C 15,6 C 15,0 C 76 % 1010,4 hPa 0,0 l/m 0 min 0 min 0 W/m 6,8 km/h (2 Bft) 97,87 %
18.09.2018 05:46 16,0 C 15,6 C 15,0 C 76 % 1010,4 hPa 0,0 l/m 0 min 0 min 0 W/m 6,8 km/h (2 Bft) 100,00 %
18.09.2018 05:48 16,1 C 15,6 C 15,0 C 76 % 1010,3 hPa 0,0 l/m 0 min 0 min 0 W/m 11,3 km/h (2 Bft) 100,00 %
18.09.2018 05:50 16,1 C 15,6 C 15,0 C 76 % 1010,4 hPa 0,0 l/m 0 min 0 min 0 W/m 9,0 km/h (2 Bft) 97,83 %
18.09.2018 05:52 16,1 C 15,6 C 15,0 C 76 % 1010,3 hPa 0,0 l/m 0 min 0 min 0 W/m 11,3 km/h (2 Bft) 95,74 %
18.09.2018 05:54 16,1 C 15,6 C 14,4 C 76 % 1010,2 hPa 0,0 l/m 0 min 0 min 0 W/m 6,8 km/h (2 Bft) 97,87 %
18.09.2018 05:56 16,1 C 15,6 C 15,0 C 76 % 1010,2 hPa 0,0 l/m 0 min 0 min 0 W/m 9,0 km/h (2 Bft) 100,00 %
18.09.2018 05:58 16,1 C 15,6 C 14,4 C 75 % 1010,2 hPa 0,0 l/m 0 min 0 min 0 W/m 6,8 km/h (2 Bft) 100,00 %
18.09.2018 06:00 16,1 C 15,6 C 14,4 C 75 % 1010,3 hPa 0,0 l/m 0 min 0 min 0 W/m 9,0 km/h (2 Bft) 97,87 %
18.09.2018 06:02 16,1 C 15,6 C 14,4 C 76 % 1010,2 hPa 0,0 l/m 0 min 0 min 0 W/m 11,3 km/h (2 Bft) 97,83 %
18.09.2018 06:04 16,1 C 15,6 C 14,4 C 76 % 1010,2 hPa 0,0 l/m 0 min 0 min 0 W/m 6,8 km/h (2 Bft) 100,00 %
18.09.2018 06:06 16,1 C 15,6 C 14,4 C 76 % 1010,2 hPa 0,0 l/m 0 min 0 min 0 W/m 13,5 km/h (3 Bft) 97,87 %
18.09.2018 06:08 16,1 C 15,6 C 14,4 C 75 % 1010,2 hPa 0,0 l/m 0 min 0 min 0 W/m 11,3 km/h (2 Bft) 100,00 %
18.09.2018 06:10 16,1 C 15,6 C 14,4 C 76 % 1010,2 hPa 0,0 l/m 0 min 0 min 0 W/m 11,3 km/h (2 Bft) 97,87 %
18.09.2018 06:12 16,1 C 15,6 C 14,4 C 76 % 1010,1 hPa 0,0 l/m 0 min 0 min 0 W/m 6,8 km/h (2 Bft) 97,87 %
18.09.2018 06:14 16,1 C 15,6 C 14,4 C 76 % 1010,1 hPa 0,0 l/m 0 min 0 min 0 W/m 9,0 km/h (2 Bft) 97,83 %
18.09.2018 06:16 16,1 C 15,6 C 14,4 C 75 % 1010,1 hPa 0,0 l/m 0 min 0 min 0 W/m 9,0 km/h (2 Bft) 97,87 %
18.09.2018 06:20 16,1 C 15,6 C 14,4 C 76 % 1010,1 hPa 0,0 l/m 0 min 0 min 0 W/m 9,0 km/h (2 Bft) 97,30 %
18.09.2018 06:22 16,1 C 15,6 C 14,4 C 76 % 1010,1 hPa 0,0 l/m 0 min 0 min 0 W/m 6,8 km/h (2 Bft) 95,74 %
18.09.2018 06:26 16,1 C 15,6 C 14,4 C 76 % 1010,1 hPa 0,0 l/m 0 min 0 min 0 W/m 9,0 km/h (2 Bft) 94,12 %
18.09.2018 06:28 16,1 C 15,6 C 14,4 C 76 % 1010,1 hPa 0,0 l/m 0 min 0 min 0 W/m 6,8 km/h (2 Bft) 95,65 %
18.09.2018 06:30 16,1 C 15,6 C 14,4 C 76 % 1010,2 hPa 0,0 l/m 0 min 0 min 0 W/m 6,8 km/h (2 Bft) 93,62 %
18.09.2018 06:32 16,1 C 15,6 C 14,4 C 76 % 1010,1 hPa 0,0 l/m 0 min 0 min 0 W/m 6,8 km/h (2 Bft) 95,74 %
18.09.2018 06:34 16,1 C 15,6 C 14,4 C 76 % 1010,1 hPa 0,0 l/m 0 min 0 min 0 W/m 11,3 km/h (2 Bft) 95,74 %
18.09.2018 06:36 16,1 C 15,6 C 14,4 C 76 % 1010,1 hPa 0,0 l/m 0 min 0 min 0 W/m 9,0 km/h (2 Bft) 95,74 %
18.09.2018 06:38 16,1 C 15,6 C 14,4 C 76 % 1010,0 hPa 0,0 l/m 0 min 0 min 0 W/m 11,3 km/h (2 Bft) 95,74 %
18.09.2018 06:40 16,1 C 15,6 C 14,4 C 76 % 1010,0 hPa 0,0 l/m 0 min 0 min 0 W/m 9,0 km/h (2 Bft) 95,74 %
18.09.2018 06:42 16,0 C 15,6 C 14,4 C 76 % 1010,1 hPa 0,0 l/m 0 min 0 min 0 W/m 9,0 km/h (2 Bft) 93,48 %
18.09.2018 06:44 16,0 C 15,6 C 14,4 C 76 % 1010,1 hPa 0,0 l/m 0 min 0 min 0 W/m 6,8 km/h (2 Bft) 95,74 %
18.09.2018 06:46 16,0 C 15,0 C 14,4 C 76 % 1010,0 hPa 0,0 l/m 0 min 0 min 0 W/m 9,0 km/h (2 Bft) 94,00 %
18.09.2018 06:48 16,0 C 15,0 C 14,4 C 76 % 1010,0 hPa 0,0 l/m 0 min 0 min 0 W/m 6,8 km/h (2 Bft) 95,74 %
18.09.2018 06:50 16,0 C 15,0 C 14,4 C 76 % 1010,1 hPa 0,0 l/m 0 min 0 min 0 W/m 6,8 km/h (2 Bft) 95,74 %
18.09.2018 06:52 16,0 C 15,0 C 14,4 C 76 % 1010,1 hPa 0,0 l/m 0 min 0 min 0 W/m 11,3 km/h (2 Bft) 97,87 %
18.09.2018 06:54 16,0 C 15,0 C 14,4 C 76 % 1010,1 hPa 0,0 l/m 0 min 0 min 0 W/m 11,3 km/h (2 Bft) 95,65 %
18.09.2018 06:56 15,9 C 15,0 C 14,4 C 76 % 1010,0 hPa 0,0 l/m 0 min 0 min 0 W/m 6,8 km/h (2 Bft) 95,74 %
18.09.2018 06:58 15,9 C 15,0 C 14,4 C 76 % 1010,1 hPa 0,0 l/m 0 min 0 min 0 W/m 9,0 km/h (2 Bft) 95,74 %
18.09.2018 07:00 15,9 C 15,0 C 14,4 C 76 % 1010,0 hPa 0,0 l/m 0 min 0 min 0 W/m 9,0 km/h (2 Bft) 97,87 %
18.09.2018 07:02 15,9 C 15,0 C 14,4 C 76 % 1010,1 hPa 0,0 l/m 0 min 0 min 0 W/m 11,3 km/h (2 Bft) 95,74 %
18.09.2018 07:04 15,9 C 15,0 C 14,4 C 76 % 1010,0 hPa 0,0 l/m 0 min 0 min 0 W/m 9,0 km/h (2 Bft) 97,87 %
18.09.2018 07:06 15,9 C 15,0 C 14,4 C 76 % 1010,0 hPa 0,0 l/m 0 min 0 min 0 W/m 9,0 km/h (2 Bft) 100,00 %
18.09.2018 07:08 15,9 C 15,0 C 14,4 C 76 % 1010,0 hPa 0,0 l/m 0 min 0 min 0 W/m 9,0 km/h (2 Bft) 100,00 %
18.09.2018 07:10 15,9 C 15,0 C 14,4 C 76 % 1010,0 hPa 0,0 l/m 0 min 0 min 0 W/m 15,8 km/h (3 Bft) 100,00 %
18.09.2018 07:12 15,9 C 15,0 C 14,4 C 76 % 1010,0 hPa 0,0 l/m 0 min 0 min 0 W/m 13,5 km/h (3 Bft) 100,00 %
18.09.2018 07:14 15,9 C 15,0 C 14,4 C 76 % 1010,0 hPa 0,0 l/m 0 min 0 min 0 W/m 9,0 km/h (2 Bft) 97,87 %
18.09.2018 07:16 15,8 C 15,0 C 14,4 C 76 % 1009,9 hPa 0,0 l/m 0 min 0 min 2 W/m 6,8 km/h (2 Bft) 100,00 %
18.09.2018 07:18 15,8 C 15,0 C 14,4 C 76 % 1009,9 hPa 0,0 l/m 0 min 0 min 5 W/m 9,0 km/h (2 Bft) 100,00 %
18.09.2018 07:20 15,8 C 15,0 C 14,4 C 76 % 1009,9 hPa 0,0 l/m 0 min 0 min 5 W/m 6,8 km/h (2 Bft) 100,00 %
18.09.2018 07:22 15,8 C 15,0 C 14,4 C 76 % 1009,9 hPa 0,0 l/m 0 min 0 min 7 W/m 6,8 km/h (2 Bft) 97,87 %
18.09.2018 07:24 15,8 C 15,0 C 14,4 C 76 % 1010,0 hPa 0,0 l/m 0 min 0 min 7 W/m 9,0 km/h (2 Bft) 100,00 %
18.09.2018 07:26 15,8 C 15,0 C 14,4 C 76 % 1009,9 hPa 0,0 l/m 0 min 0 min 9 W/m 9,0 km/h (2 Bft) 97,87 %
18.09.2018 07:28 15,8 C 15,0 C 14,4 C 76 % 1010,0 hPa 0,0 l/m 0 min 0 min 11 W/m 6,8 km/h (2 Bft) 100,00 %
18.09.2018 07:30 15,8 C 15,0 C 14,4 C 76 % 1009,9 hPa 0,0 l/m 0 min 0 min 12 W/m 9,0 km/h (2 Bft) 100,00 %
18.09.2018 07:32 15,8 C 15,0 C 14,4 C 76 % 1010,0 hPa 0,0 l/m 0 min 0 min 12 W/m 4,5 km/h (1 Bft) 97,87 %
18.09.2018 07:34 15,8 C 15,0 C 14,4 C 76 % 1010,0 hPa 0,0 l/m 0 min 0 min 12 W/m 9,0 km/h (2 Bft) 100,00 %
18.09.2018 07:36 15,8 C 15,0 C 14,4 C 77 % 1010,0 hPa 0,0 l/m 0 min 0 min 14 W/m 6,8 km/h (2 Bft) 97,87 %
18.09.2018 07:38 15,8 C 15,0 C 14,4 C 77 % 1010,1 hPa 0,0 l/m 0 min 0 min 14 W/m 6,8 km/h (2 Bft) 100,00 %
18.09.2018 07:40 15,7 C 15,0 C 14,4 C 77 % 1010,0 hPa 0,0 l/m 0 min 0 min 15 W/m 9,0 km/h (2 Bft) 100,00 %
18.09.2018 07:42 15,8 C 15,0 C 14,4 C 77 % 1010,0 hPa 0,0 l/m 0 min 0 min 16 W/m 6,8 km/h (2 Bft) 97,87 %
18.09.2018 07:44 15,7 C 15,0 C 14,4 C 77 % 1010,0 hPa 0,0 l/m 0 min 0 min 16 W/m 6,8 km/h (2 Bft) 100,00 %
18.09.2018 07:46 15,7 C 15,6 C 14,4 C 77 % 1010,0 hPa 0,0 l/m 0 min 0 min 18 W/m 9,0 km/h (2 Bft) 100,00 %
18.09.2018 07:48 15,7 C 15,6 C 14,4 C 77 % 1010,0 hPa 0,0 l/m 0 min 0 min 18 W/m 9,0 km/h (2 Bft) 100,00 %
18.09.2018 07:50 15,7 C 15,6 C 14,4 C 77 % 1010,0 hPa 0,0 l/m 0 min 0 min 18 W/m 9,0 km/h (2 Bft) 97,87 %
18.09.2018 07:52 15,7 C 15,6 C 14,4 C 77 % 1010,1 hPa 0,0 l/m 0 min 0 min 19 W/m 6,8 km/h (2 Bft) 100,00 %
18.09.2018 07:54 15,8 C 15,6 C 14,4 C 77 % 1010,1 hPa 0,0 l/m 0 min 0 min 19 W/m 11,3 km/h (2 Bft) 100,00 %
18.09.2018 07:56 15,8 C 15,6 C 14,4 C 77 % 1010,1 hPa 0,0 l/m 0 min 0 min 20 W/m 9,0 km/h (2 Bft) 100,00 %
18.09.2018 07:58 15,8 C 15,6 C 14,4 C 77 % 1010,1 hPa 0,0 l/m 0 min 0 min 21 W/m 13,5 km/h (3 Bft) 100,00 %
18.09.2018 08:00 15,8 C 15,6 C 14,4 C 77 % 1010,0 hPa 0,0 l/m 0 min 0 min 21 W/m 9,0 km/h (2 Bft) 100,00 %
18.09.2018 08:02 15,8 C 15,6 C 15,0 C 77 % 1010,0 hPa 0,0 l/m 0 min 0 min 22 W/m 9,0 km/h (2 Bft) 100,00 %
18.09.2018 08:04 15,8 C 16,1 C 15,0 C 77 % 1010,1 hPa 0,0 l/m 0 min 0 min 23 W/m 13,5 km/h (3 Bft) 100,00 %
18.09.2018 08:06 15,9 C 16,1 C 15,0 C 77 % 1010,0 hPa 0,0 l/m 0 min 0 min 23 W/m 11,3 km/h (2 Bft) 97,87 %
18.09.2018 08:08 15,9 C 16,1 C 15,0 C 77 % 1010,0 hPa 0,0 l/m 0 min 0 min 25 W/m 9,0 km/h (2 Bft) 97,87 %
18.09.2018 08:10 15,9 C 16,1 C 15,0 C 77 % 1010,0 hPa 0,0 l/m 0 min 0 min 25 W/m 9,0 km/h (2 Bft) 97,87 %
18.09.2018 08:12 16,0 C 16,1 C 15,0 C 77 % 1010,0 hPa 0,0 l/m 0 min 0 min 25 W/m 11,3 km/h (2 Bft) 95,74 %
18.09.2018 08:14 16,0 C 16,1 C 15,0 C 77 % 1010,0 hPa 0,0 l/m 0 min 0 min 26 W/m 13,5 km/h (3 Bft) 97,87 %
18.09.2018 08:16 16,1 C 16,1 C 15,0 C 77 % 1010,0 hPa 0,0 l/m 0 min 0 min 26 W/m 9,0 km/h (2 Bft) 95,65 %
18.09.2018 08:18 16,1 C 16,1 C 15,0 C 77 % 1010,0 hPa 0,0 l/m 0 min 0 min 26 W/m 9,0 km/h (2 Bft) 97,87 %
18.09.2018 08:20 16,1 C 16,1 C 15,0 C 77 % 1010,0 hPa 0,0 l/m 0 min 0 min 28 W/m 6,8 km/h (2 Bft) 97,87 %
18.09.2018 08:22 16,2 C 16,1 C 15,0 C 77 % 1010,0 hPa 0,0 l/m 0 min 0 min 28 W/m 11,3 km/h (2 Bft) 97,87 %
18.09.2018 08:24 16,2 C 16,7 C 15,0 C 77 % 1010,0 hPa 0,0 l/m 0 min 0 min 29 W/m 9,0 km/h (2 Bft) 97,87 %
18.09.2018 08:26 16,2 C 16,7 C 15,0 C 77 % 1010,0 hPa 0,0 l/m 0 min 0 min 30 W/m 11,3 km/h (2 Bft) 97,87 %
18.09.2018 08:28 16,3 C 16,7 C 15,0 C 76 % 1010,0 hPa 0,0 l/m 0 min 0 min 30 W/m 9,0 km/h (2 Bft) 95,65 %
18.09.2018 08:30 16,3 C 16,7 C 15,0 C 76 % 1009,9 hPa 0,0 l/m 0 min 0 min 30 W/m 11,3 km/h (2 Bft) 97,87 %
18.09.2018 08:32 16,4 C 16,7 C 15,0 C 76 % 1010,0 hPa 0,0 l/m 0 min 0 min 31 W/m 6,8 km/h (2 Bft) 97,87 %
18.09.2018 08:34 16,4 C 16,7 C 15,0 C 76 % 1009,9 hPa 0,0 l/m 0 min 0 min 32 W/m 9,0 km/h (2 Bft) 97,87 %
18.09.2018 08:36 16,4 C 16,7 C 15,0 C 76 % 1009,9 hPa 0,0 l/m 0 min 0 min 32 W/m 4,5 km/h (1 Bft) 97,87 %
18.09.2018 08:38 16,5 C 16,7 C 15,0 C 76 % 1010,0 hPa 0,0 l/m 0 min 0 min 32 W/m 11,3 km/h (2 Bft) 97,87 %
18.09.2018 08:40 16,6 C 17,2 C 15,0 C 76 % 1010,0 hPa 0,0 l/m 0 min 0 min 33 W/m 9,0 km/h (2 Bft) 95,65 %
18.09.2018 08:42 16,6 C 17,2 C 15,0 C 76 % 1010,0 hPa 0,0 l/m 0 min 0 min 33 W/m 11,3 km/h (2 Bft) 97,87 %
18.09.2018 08:44 16,7 C 17,2 C 15,6 C 76 % 1010,0 hPa 0,0 l/m 0 min 0 min 33 W/m 13,5 km/h (3 Bft) 97,87 %
18.09.2018 08:46 16,7 C 17,2 C 15,6 C 76 % 1010,0 hPa 0,0 l/m 0 min 0 min 34 W/m 13,5 km/h (3 Bft) 97,87 %
18.09.2018 08:48 16,8 C 17,2 C 15,6 C 76 % 1010,0 hPa 0,0 l/m 0 min 0 min 35 W/m 9,0 km/h (2 Bft) 95,74 %
18.09.2018 08:50 16,8 C 17,2 C 15,6 C 76 % 1010,0 hPa 0,0 l/m 0 min 0 min 35 W/m 11,3 km/h (2 Bft) 93,62 %
18.09.2018 08:52 16,9 C 17,2 C 15,6 C 76 % 1010,0 hPa 0,0 l/m 0 min 0 min 36 W/m 9,0 km/h (2 Bft) 95,74 %
18.09.2018 08:54 16,9 C 17,8 C 15,6 C 76 % 1010,1 hPa 0,0 l/m 0 min 0 min 37 W/m 9,0 km/h (2 Bft) 95,74 %
18.09.2018 08:56 17,0 C 17,8 C 15,6 C 76 % 1010,1 hPa 0,0 l/m 0 min 0 min 38 W/m 11,3 km/h (2 Bft) 95,74 %
18.09.2018 08:58 17,1 C 17,8 C 15,6 C 75 % 1010,1 hPa 0,0 l/m 0 min 0 min 39 W/m 9,0 km/h (2 Bft) 95,74 %
18.09.2018 09:00 17,2 C 17,8 C 16,1 C 75 % 1010,0 hPa 0,0 l/m 0 min 0 min 39 W/m 13,5 km/h (3 Bft) 97,87 %
18.09.2018 09:02 17,2 C 17,8 C 16,1 C 75 % 1010,0 hPa 0,0 l/m 0 min 0 min 39 W/m 11,3 km/h (2 Bft) 95,65 %
18.09.2018 09:04 17,3 C 17,8 C 16,1 C 75 % 1009,9 hPa 0,0 l/m 0 min 0 min 40 W/m 9,0 km/h (2 Bft) 93,62 %
18.09.2018 09:06 17,3 C 18,3 C 16,1 C 75 % 1009,9 hPa 0,0 l/m 0 min 0 min 40 W/m 9,0 km/h (2 Bft) 93,75 %
18.09.2018 09:08 17,4 C 18,3 C 16,1 C 75 % 1009,9 hPa 0,0 l/m 0 min 0 min 41 W/m 9,0 km/h (2 Bft) 93,62 %
18.09.2018 09:10 17,5 C 18,3 C 16,1 C 75 % 1009,9 hPa 0,0 l/m 0 min 0 min 42 W/m 6,8 km/h (2 Bft) 93,48 %
18.09.2018 09:12 17,6 C 18,3 C 16,1 C 74 % 1009,9 hPa 0,0 l/m 0 min 0 min 42 W/m 6,8 km/h (2 Bft) 93,62 %
18.09.2018 09:14 17,7 C 18,9 C 16,1 C 74 % 1009,9 hPa 0,0 l/m 0 min 0 min 42 W/m 9,0 km/h (2 Bft) 95,74 %
18.09.2018 09:16 17,8 C 18,9 C 16,1 C 74 % 1010,0 hPa 0,0 l/m 0 min 0 min 44 W/m 9,0 km/h (2 Bft) 95,74 %
18.09.2018 09:18 17,8 C 18,9 C 16,1 C 74 % 1009,9 hPa 0,0 l/m 0 min 0 min 44 W/m 11,3 km/h (2 Bft) 95,74 %
18.09.2018 09:20 17,9 C 18,9 C 16,7 C 74 % 1009,9 hPa 0,0 l/m 0 min 0 min 45 W/m 6,8 km/h (2 Bft) 93,62 %
18.09.2018 09:22 18,0 C 18,9 C 16,7 C 74 % 1009,9 hPa 0,0 l/m 0 min 0 min 46 W/m 9,0 km/h (2 Bft) 93,48 %
18.09.2018 09:24 18,1 C 18,9 C 16,7 C 73 % 1009,9 hPa 0,0 l/m 0 min 0 min 46 W/m 11,3 km/h (2 Bft) 93,62 %
18.09.2018 09:26 18,2 C 19,4 C 16,7 C 73 % 1009,9 hPa 0,0 l/m 0 min 0 min 46 W/m 11,3 km/h (2 Bft) 95,74 %
18.09.2018 09:28 18,3 C 19,4 C 16,7 C 73 % 1009,9 hPa 0,0 l/m 0 min 0 min 47 W/m 11,3 km/h (2 Bft) 93,62 %
18.09.2018 09:30 18,4 C 19,4 C 16,7 C 73 % 1009,8 hPa 0,0 l/m 0 min 0 min 47 W/m 13,5 km/h (3 Bft) 93,62 %
18.09.2018 09:32 18,5 C 19,4 C 16,7 C 72 % 1009,9 hPa 0,0 l/m 0 min 0 min 48 W/m 15,8 km/h (3 Bft) 95,74 %
18.09.2018 09:34 18,6 C 19,4 C 16,7 C 72 % 1009,8 hPa 0,0 l/m 0 min 0 min 49 W/m 11,3 km/h (2 Bft) 95,65 %
18.09.2018 09:36 18,7 C 20,0 C 17,2 C 72 % 1009,9 hPa 0,0 l/m 0 min 0 min 50 W/m 13,5 km/h (3 Bft) 95,74 %
18.09.2018 09:38 18,8 C 20,0 C 17,2 C 72 % 1009,9 hPa 0,0 l/m 0 min 0 min 144 W/m 11,3 km/h (2 Bft) 93,62 %
18.09.2018 09:40 18,9 C 20,0 C 17,2 C 71 % 1009,9 hPa 0,0 l/m 2 min 0 min 242 W/m 15,8 km/h (3 Bft) 95,74 %
18.09.2018 09:42 19,1 C 20,0 C 17,2 C 71 % 1009,9 hPa 0,0 l/m 2 min 0 min 249 W/m 13,5 km/h (3 Bft) 95,74 %
18.09.2018 09:44 19,2 C 20,0 C 17,2 C 71 % 1009,9 hPa 0,0 l/m 2 min 0 min 253 W/m 11,3 km/h (2 Bft) 97,87 %
18.09.2018 09:46 19,2 C 20,6 C 17,2 C 71 % 1009,8 hPa 0,0 l/m 2 min 0 min 259 W/m 9,0 km/h (2 Bft) 95,65 %
18.09.2018 09:48 19,3 C 20,6 C 17,2 C 71 % 1009,9 hPa 0,0 l/m 2 min 0 min 267 W/m 11,3 km/h (2 Bft) 97,87 %
18.09.2018 09:50 19,4 C 20,6 C 17,8 C 71 % 1010,0 hPa 0,0 l/m 2 min 0 min 273 W/m 11,3 km/h (2 Bft) 97,87 %
18.09.2018 09:52 19,5 C 20,6 C 17,8 C 70 % 1009,9 hPa 0,0 l/m 2 min 0 min 279 W/m 9,0 km/h (2 Bft) 95,74 %
18.09.2018 09:54 19,6 C 21,1 C 17,8 C 70 % 1009,9 hPa 0,0 l/m 2 min 0 min 284 W/m 13,5 km/h (3 Bft) 95,74 %
18.09.2018 09:56 19,7 C 21,7 C 17,8 C 70 % 1009,9 hPa 0,0 l/m 2 min 0 min 289 W/m 9,0 km/h (2 Bft) 97,87 %
18.09.2018 09:58 19,8 C 22,2 C 17,8 C 70 % 1009,8 hPa 0,0 l/m 2 min 0 min 294 W/m 9,0 km/h (2 Bft) 100,00 %
18.09.2018 10:00 19,9 C 22,2 C 17,8 C 70 % 1010,0 hPa 0,0 l/m 2 min 0 min 299 W/m 11,3 km/h (2 Bft) 100,00 %
18.09.2018 10:02 20,0 C 23,3 C 17,8 C 70 % 1009,9 hPa 0,0 l/m 2 min 0 min 304 W/m 6,8 km/h (2 Bft) 97,92 %
18.09.2018 10:04 20,1 C 23,3 C 17,8 C 69 % 1009,9 hPa 0,0 l/m 2 min 0 min 309 W/m 13,5 km/h (3 Bft) 100,00 %
18.09.2018 10:06 20,3 C 23,3 C 18,3 C 69 % 1010,0 hPa 0,0 l/m 2 min 0 min 313 W/m 4,5 km/h (1 Bft) 100,00 %
18.09.2018 10:08 20,4 C 23,3 C 18,3 C 69 % 1010,0 hPa 0,0 l/m 2 min 0 min 317 W/m 9,0 km/h (2 Bft) 100,00 %
18.09.2018 10:10 20,6 C 23,9 C 18,3 C 68 % 1009,8 hPa 0,0 l/m 2 min 0 min 322 W/m 11,3 km/h (2 Bft) 100,00 %
18.09.2018 10:12 20,8 C 25,0 C 18,3 C 68 % 1010,1 hPa 0,0 l/m 2 min 0 min 324 W/m 9,0 km/h (2 Bft) 97,83 %
18.09.2018 10:14 20,9 C 25,6 C 18,9 C 68 % 1009,9 hPa 0,0 l/m 2 min 0 min 326 W/m 9,0 km/h (2 Bft) 100,00 %
18.09.2018 10:16 21,1 C 25,6 C 18,3 C 68 % 1009,9 hPa 0,0 l/m 2 min 0 min 332 W/m 9,0 km/h (2 Bft) 100,00 %
18.09.2018 10:18 21,2 C 26,1 C 18,9 C 67 % 1010,2 hPa 0,0 l/m 2 min 0 min 336 W/m 9,0 km/h (2 Bft) 100,00 %
18.09.2018 10:20 21,4 C 27,2 C 18,9 C 67 % 1009,9 hPa 0,0 l/m 2 min 0 min 339 W/m 9,0 km/h (2 Bft) 100,00 %
18.09.2018 10:22 21,6 C 27,2 C 18,9 C 67 % 1009,9 hPa 0,0 l/m 2 min 0 min 319 W/m 4,5 km/h (1 Bft) 100,00 %
18.09.2018 10:24 21,7 C 27,2 C 18,9 C 66 % 1010,0 hPa 0,0 l/m 2 min 0 min 226 W/m 11,3 km/h (2 Bft) 100,00 %
18.09.2018 10:26 21,9 C 27,2 C 18,9 C 66 % 1010,0 hPa 0,0 l/m 0 min 0 min 152 W/m 13,5 km/h (3 Bft) 100,00 %
18.09.2018 10:28 22,1 C 27,8 C 19,4 C 65 % 1010,0 hPa 0,0 l/m 0 min 0 min 138 W/m 13,5 km/h (3 Bft) 100,00 %
18.09.2018 10:30 22,3 C 27,8 C 19,4 C 64 % 1010,0 hPa 0,0 l/m 0 min 0 min 186 W/m 15,8 km/h (3 Bft) 97,87 %
18.09.2018 10:32 22,5 C 28,9 C 19,4 C 64 % 1009,9 hPa 0,0 l/m 0 min 0 min 222 W/m 13,5 km/h (3 Bft) 100,00 %
18.09.2018 10:34 22,7 C 29,4 C 19,4 C 64 % 1010,0 hPa 0,0 l/m 0 min 0 min 95 W/m 4,5 km/h (1 Bft) 100,00 %
18.09.2018 10:36 22,9 C 30,0 C 19,4 C 64 % 1010,1 hPa 0,0 l/m 0 min 0 min 128 W/m 11,3 km/h (2 Bft) 100,00 %
18.09.2018 10:38 23,1 C 30,0 C 19,4 C 63 % 1010,1 hPa 0,0 l/m 0 min 0 min 97 W/m 9,0 km/h (2 Bft) 100,00 %
18.09.2018 10:40 23,2 C 31,1 C 20,0 C 64 % 1010,1 hPa 0,0 l/m 0 min 0 min 74 W/m 4,5 km/h (1 Bft) 100,00 %
18.09.2018 10:42 23,4 C 30,6 C 20,0 C 63 % 1010,1 hPa 0,0 l/m 0 min 0 min 114 W/m 9,0 km/h (2 Bft) 100,00 %
18.09.2018 10:44 23,6 C 30,0 C 20,0 C 62 % 1010,0 hPa 0,0 l/m 0 min 0 min 192 W/m 15,8 km/h (3 Bft) 97,87 %
18.09.2018 10:46 23,8 C 30,6 C 20,6 C 62 % 1010,0 hPa 0,0 l/m 0 min 0 min 187 W/m 9,0 km/h (2 Bft) 100,00 %
18.09.2018 10:48 24,1 C 31,7 C 20,6 C 62 % 1010,0 hPa 0,0 l/m 0 min 0 min 175 W/m 9,0 km/h (2 Bft) 100,00 %
18.09.2018 10:50 24,2 C 32,2 C 20,0 C 62 % 1010,0 hPa 0,0 l/m 2 min 0 min 275 W/m 6,8 km/h (2 Bft) 100,00 %
18.09.2018 10:52 24,4 C 32,2 C 20,0 C 61 % 1010,1 hPa 0,0 l/m 2 min 0 min 388 W/m 9,0 km/h (2 Bft) 100,00 %
18.09.2018 10:54 24,6 C 32,2 C 20,0 C 61 % 1009,9 hPa 0,0 l/m 2 min 0 min 408 W/m 9,0 km/h (2 Bft) 100,00 %
18.09.2018 10:56 24,8 C 32,2 C 20,6 C 60 % 1010,0 hPa 0,0 l/m 2 min 0 min 416 W/m 11,3 km/h (2 Bft) 100,00 %
18.09.2018 10:58 25,0 C 31,7 C 20,6 C 59 % 1010,1 hPa 0,0 l/m 2 min 0 min 420 W/m 15,8 km/h (3 Bft) 97,87 %
18.09.2018 11:00 25,2 C 31,7 C 20,6 C 59 % 1009,9 hPa 0,0 l/m 2 min 0 min 423 W/m 11,3 km/h (2 Bft) 100,00 %
18.09.2018 11:02 25,4 C 32,8 C 21,1 C 59 % 1009,9 hPa 0,0 l/m 2 min 0 min 425 W/m 13,5 km/h (3 Bft) 100,00 %
18.09.2018 11:04 25,6 C 31,7 C 21,1 C 58 % 1009,9 hPa 0,0 l/m 2 min 0 min 431 W/m 15,8 km/h (3 Bft) 100,00 %
18.09.2018 11:06 25,8 C 32,8 C 21,7 C 57 % 1010,0 hPa 0,0 l/m 2 min 0 min 434 W/m 6,8 km/h (2 Bft) 100,00 %
18.09.2018 11:08 26,0 C 32,8 C 21,7 C 57 % 1010,0 hPa 0,0 l/m 2 min 0 min 439 W/m 6,8 km/h (2 Bft) 97,87 %
18.09.2018 11:10 26,2 C 32,8 C 21,7 C 56 % 1009,9 hPa 0,0 l/m 2 min 0 min 441 W/m 6,8 km/h (2 Bft) 95,74 %
18.09.2018 11:12 26,3 C 32,8 C 21,7 C 56 % 1009,9 hPa 0,0 l/m 2 min 0 min 446 W/m 9,0 km/h (2 Bft) 97,83 %
18.09.2018 11:14 26,5 C 33,3 C 21,7 C 56 % 1009,9 hPa 0,0 l/m 2 min 0 min 448 W/m 9,0 km/h (2 Bft) 97,87 %
18.09.2018 11:16 26,6 C 33,3 C 22,2 C 56 % 1010,0 hPa 0,0 l/m 2 min 0 min 453 W/m 6,8 km/h (2 Bft) 97,87 %
18.09.2018 11:18 26,8 C 33,3 C 22,2 C 56 % 1009,9 hPa 0,0 l/m 2 min 0 min 457 W/m 9,0 km/h (2 Bft) 97,62 %
18.09.2018 11:20 26,9 C 32,8 C 22,8 C 55 % 1010,0 hPa 0,0 l/m 2 min 0 min 461 W/m 6,8 km/h (2 Bft) 97,87 %
18.09.2018 11:22 27,1 C 33,3 C 22,8 C 54 % 1010,0 hPa 0,0 l/m 2 min 0 min 467 W/m 9,0 km/h (2 Bft) 98,11 %
18.09.2018 11:24 27,2 C 32,8 C 23,3 C 54 % 1010,0 hPa 0,0 l/m 2 min 0 min 472 W/m 9,0 km/h (2 Bft) 97,83 %
18.09.2018 11:26 27,3 C 33,3 C 23,3 C 53 % 1010,1 hPa 0,0 l/m 2 min 0 min 475 W/m 11,3 km/h (2 Bft) 93,62 %
18.09.2018 11:28 27,4 C 33,3 C 23,3 C 53 % 1010,1 hPa 0,0 l/m 2 min 0 min 477 W/m 6,8 km/h (2 Bft) 95,74 %
18.09.2018 11:30 27,6 C 34,4 C 22,8 C 54 % 1010,1 hPa 0,0 l/m 2 min 0 min 480 W/m 4,5 km/h (1 Bft) 97,87 %
18.09.2018 11:32 27,7 C 35,0 C 22,8 C 54 % 1010,1 hPa 0,0 l/m 2 min 0 min 482 W/m 6,8 km/h (2 Bft) 95,74 %
18.09.2018 11:34 27,8 C 35,0 C 22,2 C 53 % 1010,1 hPa 0,0 l/m 2 min 0 min 487 W/m 4,5 km/h (1 Bft) 95,74 %
18.09.2018 11:36 27,9 C 33,9 C 22,8 C 52 % 1010,1 hPa 0,0 l/m 2 min 0 min 489 W/m 9,0 km/h (2 Bft) 95,65 %
18.09.2018 11:38 28,1 C 33,9 C 22,8 C 53 % 1010,1 hPa 0,0 l/m 2 min 0 min 490 W/m 9,0 km/h (2 Bft) 95,74 %
18.09.2018 11:40 28,2 C 34,4 C 22,8 C 53 % 1010,1 hPa 0,0 l/m 2 min 0 min 406 W/m 6,8 km/h (2 Bft) 91,49 %
18.09.2018 11:42 28,3 C 34,4 C 22,8 C 53 % 1010,1 hPa 0,0 l/m 2 min 0 min 299 W/m 6,8 km/h (2 Bft) 95,74 %
18.09.2018 11:44 28,4 C 34,4 C 23,3 C 52 % 1010,1 hPa 0,0 l/m 0 min 0 min 142 W/m 11,3 km/h (2 Bft) 95,74 %
18.09.2018 11:46 28,5 C 33,9 C 23,3 C 52 % 1010,1 hPa 0,0 l/m 0 min 0 min 124 W/m 9,0 km/h (2 Bft) 95,65 %
18.09.2018 11:48 28,6 C 33,9 C 23,3 C 51 % 1010,1 hPa 0,0 l/m 0 min 0 min 131 W/m 6,8 km/h (2 Bft) 95,74 %
18.09.2018 11:50 28,6 C 33,9 C 23,3 C 52 % 1010,1 hPa 0,0 l/m 0 min 0 min 137 W/m 4,5 km/h (1 Bft) 95,74 %
18.09.2018 11:52 28,7 C 34,4 C 23,3 C 52 % 1010,0 hPa 0,0 l/m 0 min 0 min 115 W/m 9,0 km/h (2 Bft) 91,49 %
18.09.2018 11:54 28,8 C 36,1 C 23,3 C 53 % 1010,0 hPa 0,0 l/m 0 min 0 min 100 W/m 6,8 km/h (2 Bft) 93,62 %
18.09.2018 11:56 28,9 C 35,0 C 23,3 C 52 % 1010,0 hPa 0,0 l/m 0 min 0 min 196 W/m 4,5 km/h (1 Bft) 95,74 %
18.09.2018 11:58 29,0 C 35,0 C 23,9 C 52 % 1010,0 hPa 0,0 l/m 0 min 0 min 177 W/m 6,8 km/h (2 Bft) 95,65 %
18.09.2018 12:00 29,1 C 35,0 C 23,9 C 52 % 1010,0 hPa 0,0 l/m 0 min 0 min 104 W/m 6,8 km/h (2 Bft) 93,62 %
18.09.2018 12:02 29,2 C 35,0 C 23,9 C 52 % 1010,0 hPa 0,0 l/m 0 min 0 min 153 W/m 6,8 km/h (2 Bft) 95,24 %
18.09.2018 12:04 29,3 C 35,0 C 23,9 C 52 % 1010,0 hPa 0,0 l/m 0 min 0 min 83 W/m 6,8 km/h (2 Bft) 91,49 %
18.09.2018 12:07 29,4 C 34,4 C 23,9 C 53 % 1010,0 hPa 0,0 l/m 0 min 0 min 84 W/m 6,8 km/h (2 Bft) 97,14 %
18.09.2018 12:08 29,4 C 33,9 C 24,4 C 53 % 1010,0 hPa 0,0 l/m 0 min 0 min 74 W/m 11,3 km/h (2 Bft) 87,50 %
18.09.2018 12:10 29,5 C 34,4 C 24,4 C 53 % 1010,0 hPa 0,0 l/m 0 min 0 min 74 W/m 6,8 km/h (2 Bft) 93,48 %
18.09.2018 12:12 29,5 C 33,9 C 25,0 C 52 % 1010,0 hPa 0,0 l/m 0 min 0 min 133 W/m 15,8 km/h (3 Bft) 95,74 %
18.09.2018 12:14 29,6 C 34,4 C 25,0 C 53 % 1010,0 hPa 0,0 l/m 0 min 0 min 167 W/m 6,8 km/h (2 Bft) 95,74 %
18.09.2018 12:16 29,6 C 34,4 C 25,0 C 53 % 1009,9 hPa 0,0 l/m 2 min 0 min 324 W/m 6,8 km/h (2 Bft) 93,62 %
18.09.2018 12:18 29,7 C 33,9 C 25,0 C 53 % 1009,9 hPa 0,0 l/m 2 min 0 min 480 W/m 11,3 km/h (2 Bft) 97,87 %
18.09.2018 12:20 29,7 C 35,0 C 25,0 C 54 % 1010,0 hPa 0,0 l/m 2 min 0 min 480 W/m 6,8 km/h (2 Bft) 95,65 %
18.09.2018 12:22 29,7 C 34,4 C 25,0 C 53 % 1009,9 hPa 0,0 l/m 2 min 0 min 480 W/m 9,0 km/h (2 Bft) 97,87 %
18.09.2018 12:24 29,7 C 34,4 C 25,6 C 53 % 1009,9 hPa 0,0 l/m 2 min 0 min 480 W/m 11,3 km/h (2 Bft) 97,87 %
18.09.2018 12:26 29,7 C 33,9 C 25,6 C 53 % 1010,1 hPa 0,0 l/m 0 min 0 min 274 W/m 15,8 km/h (3 Bft) 97,87 %
18.09.2018 12:28 29,7 C 32,8 C 25,0 C 52 % 1010,0 hPa 0,0 l/m 0 min 0 min 220 W/m 11,3 km/h (2 Bft) 95,74 %
18.09.2018 12:30 29,7 C 32,8 C 25,0 C 53 % 1010,0 hPa 0,0 l/m 0 min 0 min 219 W/m 9,0 km/h (2 Bft) 95,74 %
18.09.2018 12:32 29,6 C 33,3 C 25,0 C 53 % 1009,9 hPa 0,0 l/m 0 min 0 min 216 W/m 11,3 km/h (2 Bft) 97,83 %
18.09.2018 12:34 29,6 C 33,9 C 25,0 C 54 % 1009,9 hPa 0,0 l/m 0 min 0 min 204 W/m 6,8 km/h (2 Bft) 97,87 %
18.09.2018 12:36 29,7 C 33,3 C 25,0 C 53 % 1009,9 hPa 0,0 l/m 0 min 0 min 85 W/m 13,5 km/h (3 Bft) 97,87 %
18.09.2018 12:38 29,6 C 32,8 C 25,6 C 53 % 1010,0 hPa 0,0 l/m 0 min 0 min 87 W/m 11,3 km/h (2 Bft) 97,87 %
18.09.2018 12:40 29,6 C 33,3 C 25,6 C 53 % 1009,9 hPa 0,0 l/m 0 min 0 min 76 W/m 9,0 km/h (2 Bft) 97,87 %
18.09.2018 12:42 29,6 C 33,9 C 25,6 C 54 % 1009,9 hPa 0,0 l/m 0 min 0 min 74 W/m 11,3 km/h (2 Bft) 97,87 %
18.09.2018 12:44 29,6 C 33,3 C 25,6 C 53 % 1009,8 hPa 0,0 l/m 0 min 0 min 74 W/m 13,5 km/h (3 Bft) 97,83 %
18.09.2018 12:46 29,6 C 32,8 C 25,6 C 53 % 1009,9 hPa 0,0 l/m 0 min 0 min 80 W/m 13,5 km/h (3 Bft) 97,87 %
18.09.2018 12:48 29,6 C 33,3 C 25,6 C 53 % 1009,8 hPa 0,0 l/m 0 min 0 min 87 W/m 13,5 km/h (3 Bft) 95,74 %
18.09.2018 12:50 29,6 C 33,3 C 25,6 C 53 % 1009,8 hPa 0,0 l/m 0 min 0 min 86 W/m 11,3 km/h (2 Bft) 97,87 %
18.09.2018 12:52 29,6 C 33,3 C 25,6 C 53 % 1009,8 hPa 0,0 l/m 0 min 0 min 119 W/m 11,3 km/h (2 Bft) 100,00 %
18.09.2018 12:54 29,6 C 33,3 C 26,1 C 54 % 1009,8 hPa 0,0 l/m 0 min 0 min 128 W/m 6,8 km/h (2 Bft) 97,87 %
18.09.2018 12:56 29,7 C 33,3 C 25,6 C 53 % 1009,9 hPa 0,0 l/m 0 min 0 min 96 W/m 13,5 km/h (3 Bft) 100,00 %
18.09.2018 12:58 29,6 C 32,8 C 25,6 C 53 % 1009,8 hPa 0,0 l/m 0 min 0 min 77 W/m 11,3 km/h (2 Bft) 100,00 %
18.09.2018 13:00 29,6 C 31,7 C 25,6 C 53 % 1009,9 hPa 0,0 l/m 0 min 0 min 80 W/m 9,0 km/h (2 Bft) 100,00 %
18.09.2018 13:02 29,6 C 31,1 C 26,1 C 52 % 1009,9 hPa 0,0 l/m 0 min 0 min 81 W/m 13,5 km/h (3 Bft) 100,00 %
18.09.2018 13:04 29,7 C 30,6 C 26,1 C 52 % 1009,9 hPa 0,0 l/m 0 min 0 min 81 W/m 9,0 km/h (2 Bft) 100,00 %
18.09.2018 13:06 29,7 C 30,6 C 26,1 C 53 % 1009,8 hPa 0,0 l/m 0 min 0 min 81 W/m 9,0 km/h (2 Bft) 100,00 %
18.09.2018 13:08 29,7 C 29,4 C 26,1 C 52 % 1009,8 hPa 0,0 l/m 0 min 0 min 89 W/m 11,3 km/h (2 Bft) 100,00 %
18.09.2018 13:10 29,7 C 28,9 C 26,1 C 52 % 1009,7 hPa 0,0 l/m 0 min 0 min 104 W/m 11,3 km/h (2 Bft) 100,00 %
18.09.2018 13:12 29,7 C 29,4 C 26,1 C 53 % 1009,7 hPa 0,0 l/m 0 min 0 min 186 W/m 6,8 km/h (2 Bft) 100,00 %
18.09.2018 13:14 29,7 C 29,4 C 26,1 C 53 % 1009,7 hPa 0,0 l/m 0 min 0 min 221 W/m 6,8 km/h (2 Bft) 100,00 %
18.09.2018 13:16 29,7 C 29,4 C 26,1 C 52 % 1009,7 hPa 0,0 l/m 0 min 0 min 225 W/m 13,5 km/h (3 Bft) 97,87 %
18.09.2018 13:18 29,7 C 29,4 C 26,1 C 51 % 1009,7 hPa 0,0 l/m 0 min 0 min 227 W/m 6,8 km/h (2 Bft) 100,00 %
18.09.2018 13:20 29,7 C 29,4 C 26,1 C 51 % 1009,7 hPa 0,0 l/m 2 min 0 min 412 W/m 9,0 km/h (2 Bft) 100,00 %
18.09.2018 13:22 29,8 C 29,4 C 26,1 C 51 % 1009,6 hPa 0,0 l/m 2 min 0 min 605 W/m 9,0 km/h (2 Bft) 100,00 %
18.09.2018 13:24 29,8 C 29,4 C 26,1 C 52 % 1009,7 hPa 0,0 l/m 2 min 0 min 605 W/m 6,8 km/h (2 Bft) 100,00 %
18.09.2018 13:26 29,8 C 29,4 C 26,7 C 51 % 1009,5 hPa 0,0 l/m 2 min 0 min 563 W/m 9,0 km/h (2 Bft) 100,00 %
18.09.2018 13:28 29,8 C 29,4 C 26,7 C 49 % 1009,6 hPa 0,0 l/m 2 min 0 min 531 W/m 13,5 km/h (3 Bft) 100,00 %
18.09.2018 13:30 29,8 C 29,4 C 26,7 C 49 % 1009,6 hPa 0,0 l/m 2 min 0 min 610 W/m 9,0 km/h (2 Bft) 100,00 %
18.09.2018 13:32 29,8 C 29,4 C 26,7 C 49 % 1009,6 hPa 0,0 l/m 2 min 0 min 609 W/m 13,5 km/h (3 Bft) 97,87 %
18.09.2018 13:34 29,8 C 29,4 C 26,7 C 49 % 1009,5 hPa 0,0 l/m 2 min 0 min 606 W/m 13,5 km/h (3 Bft) 100,00 %
18.09.2018 13:36 29,8 C 29,4 C 26,7 C 47 % 1009,5 hPa 0,0 l/m 2 min 0 min 607 W/m 11,3 km/h (2 Bft) 100,00 %
18.09.2018 13:38 29,8 C 29,4 C 26,7 C 47 % 1009,6 hPa 0,0 l/m 2 min 0 min 613 W/m 13,5 km/h (3 Bft) 100,00 %
18.09.2018 13:40 29,8 C 29,4 C 26,7 C 47 % 1009,6 hPa 0,0 l/m 2 min 0 min 610 W/m 9,0 km/h (2 Bft) 100,00 %
18.09.2018 13:42 29,8 C 29,4 C 26,7 C 46 % 1009,6 hPa 0,0 l/m 2 min 0 min 612 W/m 11,3 km/h (2 Bft) 100,00 %
18.09.2018 13:44 29,9 C 29,4 C 26,7 C 46 % 1009,5 hPa 0,0 l/m 2 min 0 min 610 W/m 13,5 km/h (3 Bft) 100,00 %
18.09.2018 13:46 29,9 C 29,4 C 26,7 C 47 % 1009,6 hPa 0,0 l/m 2 min 0 min 610 W/m 9,0 km/h (2 Bft) 100,00 %
18.09.2018 13:48 29,9 C 29,4 C 26,7 C 48 % 1009,5 hPa 0,0 l/m 2 min 0 min 611 W/m 9,0 km/h (2 Bft) 100,00 %
18.09.2018 13:50 29,9 C 29,4 C 26,7 C 48 % 1009,6 hPa 0,0 l/m 2 min 0 min 616 W/m 6,8 km/h (2 Bft) 100,00 %
18.09.2018 13:52 29,9 C 30,0 C 26,7 C 48 % 1009,5 hPa 0,0 l/m 2 min 0 min 615 W/m 4,5 km/h (1 Bft) 100,00 %
18.09.2018 13:54 29,9 C 30,0 C 26,7 C 47 % 1009,6 hPa 0,0 l/m 2 min 0 min 615 W/m 11,3 km/h (2 Bft) 100,00 %
18.09.2018 13:56 29,9 C 29,4 C 26,7 C 45 % 1009,5 hPa 0,0 l/m 2 min 0 min 612 W/m 9,0 km/h (2 Bft) 100,00 %
18.09.2018 13:58 29,9 C 30,0 C 26,7 C 46 % 1009,5 hPa 0,0 l/m 2 min 0 min 611 W/m 9,0 km/h (2 Bft) 100,00 %
18.09.2018 14:00 30,0 C 30,0 C 26,7 C 46 % 1009,5 hPa 0,0 l/m 2 min 0 min 611 W/m 11,3 km/h (2 Bft) 95,74 %
18.09.2018 14:02 30,0 C 30,0 C 27,2 C 46 % 1009,5 hPa 0,0 l/m 2 min 0 min 612 W/m 6,8 km/h (2 Bft) 97,87 %
18.09.2018 14:04 30,1 C 30,0 C 26,7 C 46 % 1009,5 hPa 0,0 l/m 2 min 0 min 612 W/m 11,3 km/h (2 Bft) 100,00 %
18.09.2018 14:06 30,1 C 30,0 C 26,7 C 46 % 1009,5 hPa 0,0 l/m 2 min 0 min 611 W/m 9,0 km/h (2 Bft) 97,87 %
18.09.2018 14:08 30,1 C 30,0 C 26,7 C 46 % 1009,5 hPa 0,0 l/m 2 min 0 min 612 W/m 6,8 km/h (2 Bft) 97,87 %
18.09.2018 14:10 30,1 C 30,0 C 27,2 C 45 % 1009,4 hPa 0,0 l/m 2 min 0 min 612 W/m 11,3 km/h (2 Bft) 97,87 %
18.09.2018 14:12 30,2 C 30,0 C 27,2 C 46 % 1009,4 hPa 0,0 l/m 2 min 0 min 611 W/m 6,8 km/h (2 Bft) 95,74 %
18.09.2018 14:14 30,2 C 30,6 C 26,7 C 46 % 1009,3 hPa 0,0 l/m 2 min 0 min 611 W/m 6,8 km/h (2 Bft) 95,74 %
18.09.2018 14:16 30,2 C 30,0 C 26,7 C 46 % 1009,3 hPa 0,0 l/m 2 min 0 min 609 W/m 18,0 km/h (3 Bft) 97,87 %
18.09.2018 14:18 30,2 C 30,0 C 27,2 C 45 % 1009,5 hPa 0,0 l/m 2 min 0 min 607 W/m 11,3 km/h (2 Bft) 97,83 %
18.09.2018 14:20 30,2 C 30,0 C 27,2 C 44 % 1009,3 hPa 0,0 l/m 2 min 0 min 607 W/m 11,3 km/h (2 Bft) 97,87 %
18.09.2018 14:22 30,3 C 30,0 C 27,2 C 44 % 1009,3 hPa 0,0 l/m 2 min 0 min 573 W/m 9,0 km/h (2 Bft) 95,74 %
18.09.2018 14:24 30,3 C 30,0 C 27,2 C 44 % 1009,4 hPa 0,0 l/m 2 min 0 min 506 W/m 18,0 km/h (3 Bft) 97,87 %
18.09.2018 14:26 30,3 C 30,0 C 27,2 C 44 % 1009,4 hPa 0,0 l/m 2 min 0 min 541 W/m 11,3 km/h (2 Bft) 97,87 %
18.09.2018 14:28 30,3 C 30,0 C 27,2 C 44 % 1009,4 hPa 0,0 l/m 2 min 0 min 346 W/m 9,0 km/h (2 Bft) 97,87 %
18.09.2018 14:30 30,3 C 30,0 C 27,2 C 44 % 1009,4 hPa 0,0 l/m 0 min 0 min 202 W/m 6,8 km/h (2 Bft) 95,65 %
18.09.2018 14:32 30,3 C 30,0 C 27,2 C 44 % 1009,5 hPa 0,0 l/m 0 min 0 min 121 W/m 13,5 km/h (3 Bft) 93,62 %
18.09.2018 14:34 30,3 C 30,0 C 27,2 C 45 % 1009,5 hPa 0,0 l/m 2 min 0 min 443 W/m 9,0 km/h (2 Bft) 93,62 %
18.09.2018 14:36 30,3 C 30,0 C 27,2 C 45 % 1009,5 hPa 0,0 l/m 2 min 0 min 600 W/m 11,3 km/h (2 Bft) 95,83 %
18.09.2018 14:38 30,3 C 30,0 C 27,8 C 44 % 1009,3 hPa 0,0 l/m 2 min 0 min 601 W/m 11,3 km/h (2 Bft) 95,74 %
18.09.2018 14:40 30,3 C 30,0 C 27,8 C 44 % 1009,4 hPa 0,0 l/m 2 min 0 min 598 W/m 9,0 km/h (2 Bft) 95,65 %
18.09.2018 14:42 30,3 C 30,0 C 27,2 C 45 % 1009,4 hPa 0,0 l/m 2 min 0 min 598 W/m 11,3 km/h (2 Bft) 95,74 %
18.09.2018 14:44 30,3 C 30,0 C 27,2 C 45 % 1009,4 hPa 0,0 l/m 2 min 0 min 589 W/m 6,8 km/h (2 Bft) 97,87 %
18.09.2018 14:46 30,3 C 30,0 C 27,2 C 45 % 1009,4 hPa 0,0 l/m 2 min 0 min 588 W/m 6,8 km/h (2 Bft) 97,87 %
18.09.2018 14:48 30,3 C 30,0 C 27,2 C 45 % 1009,4 hPa 0,0 l/m 2 min 0 min 589 W/m 9,0 km/h (2 Bft) 97,87 %
18.09.2018 14:50 30,3 C 30,0 C 27,8 C 44 % 1009,3 hPa 0,0 l/m 2 min 0 min 588 W/m 9,0 km/h (2 Bft) 93,62 %
18.09.2018 14:52 30,3 C 30,0 C 27,2 C 45 % 1009,3 hPa 0,0 l/m 2 min 0 min 591 W/m 6,8 km/h (2 Bft) 93,62 %
18.09.2018 14:54 30,4 C 30,0 C 27,2 C 44 % 1009,3 hPa 0,0 l/m 2 min 0 min 589 W/m 9,0 km/h (2 Bft) 97,87 %
18.09.2018 14:56 30,4 C 30,0 C 27,8 C 45 % 1009,5 hPa 0,0 l/m 2 min 0 min 589 W/m 11,3 km/h (2 Bft) 95,74 %
18.09.2018 14:58 30,4 C 30,0 C 27,2 C 44 % 1009,5 hPa 0,0 l/m 2 min 0 min 586 W/m 9,0 km/h (2 Bft) 97,87 %
18.09.2018 15:00 30,4 C 30,0 C 27,8 C 43 % 1009,3 hPa 0,0 l/m 2 min 0 min 581 W/m 6,8 km/h (2 Bft) 95,74 %
18.09.2018 15:02 30,4 C 30,0 C 27,2 C 44 % 1009,4 hPa 0,0 l/m 2 min 0 min 580 W/m 6,8 km/h (2 Bft) 97,87 %
18.09.2018 15:04 30,4 C 30,0 C 27,2 C 44 % 1009,3 hPa 0,0 l/m 2 min 0 min 580 W/m 6,8 km/h (2 Bft) 97,83 %
18.09.2018 15:06 30,4 C 30,0 C 27,8 C 44 % 1009,3 hPa 0,0 l/m 2 min 0 min 578 W/m 9,0 km/h (2 Bft) 95,83 %
18.09.2018 15:08 30,5 C 30,0 C 27,8 C 44 % 1009,4 hPa 0,0 l/m 2 min 0 min 574 W/m 15,8 km/h (3 Bft) 95,74 %
18.09.2018 15:10 30,4 C 30,0 C 27,8 C 42 % 1009,4 hPa 0,0 l/m 2 min 0 min 572 W/m 13,5 km/h (3 Bft) 97,87 %
18.09.2018 15:12 30,5 C 30,0 C 27,8 C 42 % 1009,3 hPa 0,0 l/m 2 min 0 min 571 W/m 9,0 km/h (2 Bft) 97,87 %
18.09.2018 15:14 30,5 C 30,6 C 27,8 C 43 % 1009,2 hPa 0,0 l/m 2 min 0 min 569 W/m 9,0 km/h (2 Bft) 95,74 %
18.09.2018 15:16 30,6 C 30,6 C 27,8 C 42 % 1009,4 hPa 0,0 l/m 2 min 0 min 567 W/m 6,8 km/h (2 Bft) 95,65 %
18.09.2018 15:18 30,6 C 30,0 C 27,8 C 41 % 1009,4 hPa 0,0 l/m 2 min 0 min 566 W/m 18,0 km/h (3 Bft) 95,74 %
18.09.2018 15:20 30,6 C 30,0 C 27,8 C 41 % 1009,3 hPa 0,0 l/m 2 min 0 min 565 W/m 11,3 km/h (2 Bft) 97,87 %
18.09.2018 15:22 30,6 C 30,0 C 27,8 C 41 % 1009,3 hPa 0,0 l/m 2 min 0 min 560 W/m 15,8 km/h (3 Bft) 97,87 %
18.09.2018 15:24 30,6 C 30,0 C 27,8 C 40 % 1009,3 hPa 0,0 l/m 2 min 0 min 559 W/m 13,5 km/h (3 Bft) 93,62 %
18.09.2018 15:26 30,6 C 30,0 C 27,8 C 41 % 1009,4 hPa 0,0 l/m 2 min 0 min 555 W/m 11,3 km/h (2 Bft) 97,83 %
18.09.2018 15:28 30,6 C 30,0 C 27,8 C 41 % 1009,4 hPa 0,0 l/m 2 min 0 min 552 W/m 15,8 km/h (3 Bft) 97,87 %
18.09.2018 15:30 30,6 C 30,0 C 27,8 C 41 % 1009,2 hPa 0,0 l/m 2 min 0 min 549 W/m 13,5 km/h (3 Bft) 97,87 %
18.09.2018 15:32 30,6 C 30,6 C 27,8 C 42 % 1009,3 hPa 0,0 l/m 2 min 0 min 545 W/m 9,0 km/h (2 Bft) 97,87 %
18.09.2018 15:34 30,7 C 30,6 C 27,8 C 43 % 1009,5 hPa 0,0 l/m 2 min 0 min 542 W/m 9,0 km/h (2 Bft) 95,74 %
18.09.2018 15:36 30,7 C 30,6 C 27,8 C 43 % 1009,4 hPa 0,0 l/m 2 min 0 min 538 W/m 6,8 km/h (2 Bft) 97,87 %
18.09.2018 15:38 30,7 C 30,6 C 27,8 C 43 % 1009,5 hPa 0,0 l/m 2 min 0 min 537 W/m 11,3 km/h (2 Bft) 97,87 %
18.09.2018 15:40 30,7 C 30,6 C 27,8 C 41 % 1009,4 hPa 0,0 l/m 2 min 0 min 533 W/m 11,3 km/h (2 Bft) 95,83 %
18.09.2018 15:42 30,7 C 30,0 C 27,8 C 41 % 1009,4 hPa 0,0 l/m 2 min 0 min 531 W/m 13,5 km/h (3 Bft) 98,31 %
18.09.2018 15:44 30,7 C 30,0 C 27,8 C 40 % 1009,4 hPa 0,0 l/m 2 min 0 min 529 W/m 11,3 km/h (2 Bft) 97,87 %
18.09.2018 15:46 30,7 C 30,0 C 27,8 C 40 % 1009,5 hPa 0,0 l/m 2 min 0 min 527 W/m 18,0 km/h (3 Bft) 97,87 %
18.09.2018 15:48 30,7 C 30,0 C 27,8 C 40 % 1009,5 hPa 0,0 l/m 2 min 0 min 527 W/m 11,3 km/h (2 Bft) 97,87 %
18.09.2018 15:50 30,7 C 30,0 C 27,8 C 40 % 1009,5 hPa 0,0 l/m 2 min 0 min 526 W/m 13,5 km/h (3 Bft) 97,87 %
18.09.2018 15:52 30,7 C 30,0 C 27,8 C 40 % 1009,5 hPa 0,0 l/m 2 min 0 min 524 W/m 9,0 km/h (2 Bft) 97,83 %
18.09.2018 15:54 30,7 C 30,0 C 27,8 C 40 % 1009,6 hPa 0,0 l/m 2 min 0 min 529 W/m 13,5 km/h (3 Bft) 97,87 %
18.09.2018 15:56 30,6 C 29,4 C 27,8 C 39 % 1009,5 hPa 0,0 l/m 2 min 0 min 528 W/m 9,0 km/h (2 Bft) 95,74 %
18.09.2018 15:58 30,6 C 30,0 C 27,8 C 40 % 1009,5 hPa 0,0 l/m 2 min 0 min 526 W/m 6,8 km/h (2 Bft) 95,74 %
18.09.2018 16:00 30,6 C 30,0 C 27,8 C 39 % 1009,6 hPa 0,0 l/m 2 min 0 min 523 W/m 11,3 km/h (2 Bft) 97,87 %
18.09.2018 16:02 30,6 C 30,0 C 27,8 C 40 % 1009,5 hPa 0,0 l/m 2 min 0 min 517 W/m 11,3 km/h (2 Bft) 93,62 %
18.09.2018 16:04 30,6 C 30,0 C 27,8 C 39 % 1009,5 hPa 0,0 l/m 2 min 0 min 509 W/m 13,5 km/h (3 Bft) 97,83 %
18.09.2018 16:06 30,6 C 30,0 C 27,8 C 40 % 1009,5 hPa 0,0 l/m 2 min 0 min 503 W/m 11,3 km/h (2 Bft) 95,74 %
18.09.2018 16:08 30,5 C 30,0 C 27,2 C 41 % 1009,5 hPa 0,0 l/m 2 min 0 min 499 W/m 6,8 km/h (2 Bft) 97,87 %
18.09.2018 16:10 30,5 C 30,0 C 27,2 C 41 % 1009,6 hPa 0,0 l/m 2 min 0 min 494 W/m 6,8 km/h (2 Bft) 97,87 %
18.09.2018 16:12 30,6 C 30,0 C 27,2 C 41 % 1009,5 hPa 0,0 l/m 2 min 0 min 488 W/m 4,5 km/h (1 Bft) 97,87 %
18.09.2018 16:14 30,6 C 30,0 C 27,2 C 41 % 1009,5 hPa 0,0 l/m 2 min 0 min 482 W/m 9,0 km/h (2 Bft) 97,87 %
18.09.2018 16:16 30,6 C 29,4 C 27,8 C 41 % 1009,6 hPa 0,0 l/m 2 min 0 min 476 W/m 13,5 km/h (3 Bft) 98,00 %
18.09.2018 16:18 30,5 C 29,4 C 27,8 C 41 % 1009,6 hPa 0,0 l/m 2 min 0 min 474 W/m 9,0 km/h (2 Bft) 95,74 %
18.09.2018 16:20 30,5 C 30,0 C 27,2 C 41 % 1009,6 hPa 0,0 l/m 2 min 0 min 471 W/m 9,0 km/h (2 Bft) 97,87 %
18.09.2018 16:22 30,5 C 30,6 C 27,2 C 42 % 1009,5 hPa 0,0 l/m 2 min 0 min 468 W/m 6,8 km/h (2 Bft) 97,87 %
18.09.2018 16:24 30,5 C 31,7 C 27,2 C 42 % 1009,6 hPa 0,0 l/m 2 min 0 min 464 W/m 6,8 km/h (2 Bft) 97,87 %
18.09.2018 16:26 30,5 C 31,7 C 27,2 C 42 % 1009,6 hPa 0,0 l/m 2 min 0 min 458 W/m 6,8 km/h (2 Bft) 97,87 %
18.09.2018 16:28 30,5 C 31,7 C 27,2 C 42 % 1009,6 hPa 0,0 l/m 2 min 0 min 452 W/m 9,0 km/h (2 Bft) 97,83 %
18.09.2018 16:30 30,5 C 31,1 C 27,2 C 41 % 1009,5 hPa 0,0 l/m 2 min 0 min 443 W/m 13,5 km/h (3 Bft) 97,87 %
18.09.2018 16:32 30,5 C 31,1 C 27,8 C 42 % 1009,5 hPa 0,0 l/m 2 min 0 min 439 W/m 11,3 km/h (2 Bft) 95,74 %
18.09.2018 16:34 30,5 C 31,1 C 27,8 C 41 % 1009,7 hPa 0,0 l/m 2 min 0 min 435 W/m 15,8 km/h (3 Bft) 95,74 %
18.09.2018 16:36 30,4 C 31,1 C 27,2 C 43 % 1009,7 hPa 0,0 l/m 2 min 0 min 434 W/m 9,0 km/h (2 Bft) 97,92 %
18.09.2018 16:38 30,4 C 31,7 C 27,2 C 43 % 1009,8 hPa 0,0 l/m 2 min 0 min 430 W/m 9,0 km/h (2 Bft) 95,65 %
18.09.2018 16:40 30,4 C 31,7 C 27,2 C 44 % 1009,7 hPa 0,0 l/m 2 min 0 min 425 W/m 9,0 km/h (2 Bft) 97,87 %
18.09.2018 16:42 30,4 C 31,1 C 27,2 C 43 % 1009,8 hPa 0,0 l/m 2 min 0 min 419 W/m 13,5 km/h (3 Bft) 97,87 %
18.09.2018 16:44 30,4 C 31,1 C 27,2 C 42 % 1009,8 hPa 0,0 l/m 2 min 0 min 418 W/m 13,5 km/h (3 Bft) 97,87 %
18.09.2018 16:46 30,4 C 31,1 C 27,2 C 42 % 1009,8 hPa 0,0 l/m 2 min 0 min 414 W/m 9,0 km/h (2 Bft) 97,87 %
18.09.2018 16:48 30,3 C 31,1 C 27,2 C 42 % 1009,9 hPa 0,0 l/m 2 min 0 min 407 W/m 15,8 km/h (3 Bft) 97,87 %
18.09.2018 16:50 30,3 C 31,1 C 27,8 C 42 % 1009,7 hPa 0,0 l/m 2 min 0 min 406 W/m 9,0 km/h (2 Bft) 97,87 %
18.09.2018 16:52 30,3 C 31,1 C 27,2 C 42 % 1009,7 hPa 0,0 l/m 2 min 0 min 404 W/m 13,5 km/h (3 Bft) 95,74 %
18.09.2018 16:54 30,3 C 31,1 C 27,2 C 42 % 1009,8 hPa 0,0 l/m 2 min 0 min 399 W/m 9,0 km/h (2 Bft) 97,87 %
18.09.2018 16:56 30,3 C 31,1 C 27,2 C 42 % 1009,8 hPa 0,0 l/m 2 min 0 min 395 W/m 11,3 km/h (2 Bft) 97,87 %
18.09.2018 16:58 30,3 C 31,1 C 27,2 C 42 % 1010,0 hPa 0,0 l/m 2 min 0 min 388 W/m 9,0 km/h (2 Bft) 97,87 %
18.09.2018 17:00 30,3 C 30,6 C 27,2 C 43 % 1010,0 hPa 0,0 l/m 2 min 0 min 383 W/m 15,8 km/h (3 Bft) 97,83 %
18.09.2018 17:02 30,3 C 30,6 C 27,2 C 43 % 1009,9 hPa 0,0 l/m 2 min 0 min 379 W/m 13,5 km/h (3 Bft) 97,87 %
18.09.2018 17:04 30,3 C 30,0 C 27,2 C 43 % 1010,0 hPa 0,0 l/m 2 min 0 min 376 W/m 13,5 km/h (3 Bft) 97,87 %
18.09.2018 17:06 30,2 C 30,0 C 27,2 C 43 % 1010,0 hPa 0,0 l/m 2 min 0 min 373 W/m 15,8 km/h (3 Bft) 95,74 %
18.09.2018 17:08 30,2 C 30,0 C 27,2 C 43 % 1009,9 hPa 0,0 l/m 2 min 0 min 367 W/m 6,8 km/h (2 Bft) 95,74 %
18.09.2018 17:10 30,2 C 30,6 C 27,2 C 43 % 1009,9 hPa 0,0 l/m 2 min 0 min 361 W/m 6,8 km/h (2 Bft) 97,87 %
18.09.2018 17:12 30,2 C 30,6 C 27,2 C 44 % 1009,9 hPa 0,0 l/m 2 min 0 min 359 W/m 6,8 km/h (2 Bft) 95,65 %
18.09.2018 17:14 30,1 C 30,6 C 27,2 C 43 % 1009,9 hPa 0,0 l/m 2 min 0 min 354 W/m 11,3 km/h (2 Bft) 97,87 %
18.09.2018 17:16 30,1 C 30,6 C 27,2 C 43 % 1010,0 hPa 0,0 l/m 2 min 0 min 348 W/m 11,3 km/h (2 Bft) 97,87 %
18.09.2018 17:18 30,1 C 30,6 C 26,7 C 43 % 1010,1 hPa 0,0 l/m 2 min 0 min 341 W/m 11,3 km/h (2 Bft) 100,00 %
18.09.2018 17:20 30,1 C 30,0 C 26,7 C 44 % 1010,1 hPa 0,0 l/m 2 min 0 min 336 W/m 11,3 km/h (2 Bft) 100,00 %
18.09.2018 17:22 30,0 C 30,0 C 26,7 C 43 % 1009,9 hPa 0,0 l/m 2 min 0 min 330 W/m 15,8 km/h (3 Bft) 100,00 %
18.09.2018 17:24 30,0 C 30,0 C 26,7 C 44 % 1010,0 hPa 0,0 l/m 2 min 0 min 326 W/m 15,8 km/h (3 Bft) 97,87 %
18.09.2018 17:26 30,0 C 30,0 C 26,7 C 44 % 1010,0 hPa 0,0 l/m 2 min 0 min 323 W/m 9,0 km/h (2 Bft) 97,87 %
18.09.2018 17:28 29,9 C 30,0 C 26,7 C 44 % 1010,1 hPa 0,0 l/m 2 min 0 min 317 W/m 9,0 km/h (2 Bft) 100,00 %
18.09.2018 17:30 29,9 C 29,4 C 26,7 C 45 % 1010,1 hPa 0,0 l/m 2 min 0 min 311 W/m 15,8 km/h (3 Bft) 100,00 %
18.09.2018 17:32 29,9 C 29,4 C 26,7 C 45 % 1010,1 hPa 0,0 l/m 2 min 0 min 308 W/m 4,5 km/h (1 Bft) 97,87 %
18.09.2018 17:34 29,9 C 29,4 C 26,7 C 45 % 1010,2 hPa 0,0 l/m 2 min 0 min 301 W/m 11,3 km/h (2 Bft) 100,00 %
18.09.2018 17:36 29,8 C 29,4 C 26,7 C 45 % 1010,3 hPa 0,0 l/m 2 min 0 min 295 W/m 11,3 km/h (2 Bft) 100,00 %
18.09.2018 17:38 29,8 C 29,4 C 26,7 C 45 % 1010,2 hPa 0,0 l/m 2 min 0 min 289 W/m 11,3 km/h (2 Bft) 97,87 %
18.09.2018 17:40 29,8 C 28,9 C 26,7 C 45 % 1010,2 hPa 0,0 l/m 2 min 0 min 287 W/m 13,5 km/h (3 Bft) 100,00 %
18.09.2018 17:42 29,7 C 28,9 C 26,7 C 45 % 1010,1 hPa 0,0 l/m 2 min 0 min 284 W/m 11,3 km/h (2 Bft) 100,00 %
18.09.2018 17:44 29,7 C 28,9 C 26,7 C 46 % 1010,1 hPa 0,0 l/m 2 min 0 min 276 W/m 9,0 km/h (2 Bft) 100,00 %
18.09.2018 17:46 29,6 C 28,9 C 26,7 C 46 % 1010,1 hPa 0,0 l/m 2 min 0 min 271 W/m 4,5 km/h (1 Bft) 100,00 %
18.09.2018 17:48 29,6 C 28,3 C 26,7 C 46 % 1010,2 hPa 0,0 l/m 2 min 0 min 264 W/m 11,3 km/h (2 Bft) 100,00 %
18.09.2018 17:50 29,5 C 28,3 C 26,7 C 46 % 1010,1 hPa 0,0 l/m 2 min 0 min 256 W/m 6,8 km/h (2 Bft) 100,00 %
18.09.2018 17:52 29,4 C 28,3 C 26,1 C 46 % 1010,2 hPa 0,0 l/m 2 min 0 min 253 W/m 4,5 km/h (1 Bft) 100,00 %
18.09.2018 17:54 29,4 C 28,3 C 26,7 C 46 % 1010,3 hPa 0,0 l/m 2 min 0 min 248 W/m 15,8 km/h (3 Bft) 100,00 %
18.09.2018 17:56 29,3 C 28,3 C 26,7 C 47 % 1010,2 hPa 0,0 l/m 2 min 0 min 248 W/m 11,3 km/h (2 Bft) 100,00 %
18.09.2018 17:58 29,3 C 27,8 C 26,7 C 46 % 1010,2 hPa 0,0 l/m 2 min 0 min 246 W/m 9,0 km/h (2 Bft) 100,00 %
18.09.2018 18:00 29,2 C 27,8 C 26,7 C 47 % 1010,1 hPa 0,0 l/m 2 min 0 min 246 W/m 6,8 km/h (2 Bft) 97,87 %
18.09.2018 18:02 29,2 C 27,8 C 26,1 C 47 % 1010,1 hPa 0,0 l/m 2 min 0 min 244 W/m 6,8 km/h (2 Bft) 97,87 %
18.09.2018 18:04 29,1 C 27,8 C 26,1 C 47 % 1010,1 hPa 0,0 l/m 2 min 0 min 238 W/m 4,5 km/h (1 Bft) 95,74 %
18.09.2018 18:06 29,1 C 27,8 C 26,1 C 47 % 1010,1 hPa 0,0 l/m 2 min 0 min 234 W/m 9,0 km/h (2 Bft) 97,87 %
18.09.2018 18:08 29,1 C 27,8 C 26,1 C 47 % 1010,2 hPa 0,0 l/m 2 min 0 min 229 W/m 4,5 km/h (1 Bft) 97,87 %
18.09.2018 18:10 29,0 C 27,8 C 26,1 C 47 % 1010,3 hPa 0,0 l/m 2 min 0 min 224 W/m 9,0 km/h (2 Bft) 97,83 %
18.09.2018 18:12 28,9 C 27,8 C 26,1 C 47 % 1010,2 hPa 0,0 l/m 2 min 0 min 217 W/m 11,3 km/h (2 Bft) 97,87 %
18.09.2018 18:14 28,9 C 27,8 C 26,1 C 47 % 1010,2 hPa 0,0 l/m 2 min 0 min 207 W/m 9,0 km/h (2 Bft) 97,87 %
18.09.2018 18:16 28,9 C 27,2 C 26,1 C 47 % 1010,3 hPa 0,0 l/m 2 min 0 min 199 W/m 9,0 km/h (2 Bft) 97,87 %
18.09.2018 18:18 28,8 C 27,2 C 26,1 C 46 % 1010,3 hPa 0,0 l/m 2 min 0 min 193 W/m 9,0 km/h (2 Bft) 97,87 %
18.09.2018 18:20 28,8 C 27,2 C 26,1 C 47 % 1010,3 hPa 0,0 l/m 2 min 0 min 191 W/m 6,8 km/h (2 Bft) 95,74 %
18.09.2018 18:22 28,7 C 27,2 C 25,6 C 47 % 1010,3 hPa 0,0 l/m 2 min 0 min 187 W/m 6,8 km/h (2 Bft) 95,65 %
18.09.2018 18:24 28,7 C 27,2 C 25,6 C 47 % 1010,3 hPa 0,0 l/m 2 min 0 min 186 W/m 9,0 km/h (2 Bft) 97,87 %
18.09.2018 18:26 28,6 C 27,2 C 25,6 C 47 % 1010,2 hPa 0,0 l/m 2 min 0 min 179 W/m 6,8 km/h (2 Bft) 97,87 %
18.09.2018 18:28 28,6 C 27,2 C 25,6 C 47 % 1010,2 hPa 0,0 l/m 2 min 0 min 172 W/m 9,0 km/h (2 Bft) 97,87 %
18.09.2018 18:30 28,5 C 27,2 C 25,6 C 47 % 1010,3 hPa 0,0 l/m 2 min 0 min 164 W/m 6,8 km/h (2 Bft) 97,87 %
18.09.2018 18:32 28,4 C 27,2 C 25,6 C 47 % 1010,3 hPa 0,0 l/m 2 min 0 min 154 W/m 4,5 km/h (1 Bft) 95,65 %
18.09.2018 18:34 28,4 C 26,7 C 25,6 C 47 % 1010,3 hPa 0,0 l/m 2 min 0 min 148 W/m 6,8 km/h (2 Bft) 97,87 %
18.09.2018 18:36 28,3 C 26,7 C 25,6 C 48 % 1010,2 hPa 0,0 l/m 2 min 0 min 141 W/m 4,5 km/h (1 Bft) 97,56 %
18.09.2018 18:38 28,2 C 26,7 C 25,6 C 48 % 1010,2 hPa 0,0 l/m 2 min 0 min 136 W/m 9,0 km/h (2 Bft) 97,87 %
18.09.2018 18:40 28,2 C 26,7 C 25,6 C 48 % 1010,3 hPa 0,0 l/m 2 min 0 min 133 W/m 13,5 km/h (3 Bft) 93,62 %
18.09.2018 18:42 28,1 C 26,7 C 25,6 C 48 % 1010,3 hPa 0,0 l/m 2 min 0 min 128 W/m 11,3 km/h (2 Bft) 95,74 %
18.09.2018 18:44 28,1 C 26,7 C 25,0 C 48 % 1010,3 hPa 0,0 l/m 2 min 0 min 123 W/m 6,8 km/h (2 Bft) 95,74 %
18.09.2018 18:46 28,0 C 26,7 C 25,0 C 48 % 1010,3 hPa 0,0 l/m 2 min 0 min 118 W/m 6,8 km/h (2 Bft) 95,74 %
18.09.2018 18:48 28,0 C 26,7 C 25,0 C 48 % 1010,4 hPa 0,0 l/m 2 min 0 min 104 W/m 6,8 km/h (2 Bft) 93,62 %
18.09.2018 18:50 27,9 C 26,1 C 25,0 C 48 % 1010,4 hPa 0,0 l/m 2 min 0 min 65 W/m 9,0 km/h (2 Bft) 94,83 %
18.09.2018 18:52 27,8 C 26,1 C 25,0 C 48 % 1010,5 hPa 0,0 l/m 0 min 0 min 40 W/m 9,0 km/h (2 Bft) 97,22 %
18.09.2018 18:54 27,8 C 26,1 C 25,0 C 48 % 1010,6 hPa 0,0 l/m 0 min 0 min 38 W/m 9,0 km/h (2 Bft) 95,74 %
18.09.2018 18:56 27,7 C 26,1 C 24,4 C 49 % 1010,6 hPa 0,0 l/m 0 min 0 min 36 W/m 4,5 km/h (1 Bft) 97,87 %
18.09.2018 18:58 27,6 C 26,1 C 25,0 C 49 % 1010,6 hPa 0,0 l/m 0 min 0 min 34 W/m 9,0 km/h (2 Bft) 95,74 %
18.09.2018 19:00 27,5 C 26,1 C 24,4 C 49 % 1010,6 hPa 0,0 l/m 0 min 0 min 33 W/m 9,0 km/h (2 Bft) 97,83 %
18.09.2018 19:02 27,4 C 25,6 C 24,4 C 49 % 1010,6 hPa 0,0 l/m 0 min 0 min 31 W/m 11,3 km/h (2 Bft) 97,87 %
18.09.2018 19:04 27,4 C 25,6 C 24,4 C 49 % 1010,6 hPa 0,0 l/m 0 min 0 min 29 W/m 6,8 km/h (2 Bft) 97,87 %
18.09.2018 19:06 27,3 C 25,6 C 24,4 C 50 % 1010,7 hPa 0,0 l/m 0 min 0 min 28 W/m 9,0 km/h (2 Bft) 95,74 %
18.09.2018 19:08 27,2 C 25,6 C 24,4 C 50 % 1010,7 hPa 0,0 l/m 0 min 0 min 25 W/m 6,8 km/h (2 Bft) 95,74 %
18.09.2018 19:10 27,1 C 25,0 C 24,4 C 50 % 1010,7 hPa 0,0 l/m 0 min 0 min 24 W/m 6,8 km/h (2 Bft) 95,74 %
18.09.2018 19:12 27,1 C 25,0 C 24,4 C 50 % 1010,7 hPa 0,0 l/m 0 min 0 min 22 W/m 6,8 km/h (2 Bft) 93,48 %
18.09.2018 19:14 26,9 C 25,0 C 24,4 C 50 % 1010,8 hPa 0,0 l/m 0 min 0 min 21 W/m 6,8 km/h (2 Bft) 95,74 %
18.09.2018 19:16 26,9 C 25,0 C 24,4 C 49 % 1010,8 hPa 0,0 l/m 0 min 0 min 19 W/m 6,8 km/h (2 Bft) 93,62 %
18.09.2018 19:18 26,8 C 25,0 C 24,4 C 49 % 1010,8 hPa 0,0 l/m 0 min 0 min 18 W/m 4,5 km/h (1 Bft) 93,62 %
18.09.2018 19:20 26,7 C 25,0 C 23,9 C 49 % 1010,8 hPa 0,0 l/m 0 min 0 min 17 W/m 4,5 km/h (1 Bft) 91,49 %
18.09.2018 19:22 26,7 C 25,0 C 23,9 C 49 % 1010,8 hPa 0,0 l/m 0 min 0 min 15 W/m 6,8 km/h (2 Bft) 95,74 %
18.09.2018 19:24 26,6 C 24,4 C 23,9 C 49 % 1010,9 hPa 0,0 l/m 0 min 0 min 14 W/m 6,8 km/h (2 Bft) 93,48 %
18.09.2018 19:26 26,5 C 24,4 C 23,9 C 49 % 1010,9 hPa 0,0 l/m 0 min 0 min 13 W/m 6,8 km/h (2 Bft) 95,74 %
18.09.2018 19:28 26,4 C 24,4 C 23,9 C 49 % 1011,0 hPa 0,0 l/m 0 min 0 min 12 W/m 11,3 km/h (2 Bft) 95,74 %
18.09.2018 19:30 26,3 C 24,4 C 23,3 C 49 % 1011,1 hPa 0,0 l/m 0 min 0 min 10 W/m 4,5 km/h (1 Bft) 93,62 %
18.09.2018 19:32 26,2 C 24,4 C 23,3 C 49 % 1011,1 hPa 0,0 l/m 0 min 0 min 9 W/m 4,5 km/h (1 Bft) 93,62 %
18.09.2018 19:34 26,1 C 24,4 C 23,3 C 49 % 1011,1 hPa 0,0 l/m 0 min 0 min 7 W/m 4,5 km/h (1 Bft) 95,74 %
18.09.2018 19:36 26,1 C 23,9 C 23,3 C 50 % 1011,2 hPa 0,0 l/m 0 min 0 min 7 W/m 2,3 km/h (1 Bft) 95,65 %
18.09.2018 19:38 26,0 C 23,9 C 23,3 C 50 % 1011,2 hPa 0,0 l/m 0 min 0 min 6 W/m 4,5 km/h (1 Bft) 95,74 %
18.09.2018 19:40 25,9 C 23,9 C 23,3 C 50 % 1011,2 hPa 0,0 l/m 0 min 0 min 5 W/m 4,5 km/h (1 Bft) 95,74 %
18.09.2018 19:43 25,8 C 23,9 C 23,3 C 50 % 1011,3 hPa 0,0 l/m 0 min 0 min 5 W/m 4,5 km/h (1 Bft) 96,34 %
18.09.2018 19:44 25,8 C 23,9 C 23,3 C 50 % 1011,3 hPa 0,0 l/m 0 min 0 min 2 W/m 6,8 km/h (2 Bft) 100,00 %
18.09.2018 19:46 25,7 C 23,9 C 22,8 C 50 % 1011,3 hPa 0,0 l/m 0 min 0 min 0 W/m 4,5 km/h (1 Bft) 97,83 %
18.09.2018 19:48 25,6 C 23,9 C 22,8 C 51 % 1011,4 hPa 0,0 l/m 0 min 0 min 0 W/m 6,8 km/h (2 Bft) 95,74 %
18.09.2018 19:50 25,6 C 23,9 C 22,8 C 51 % 1011,3 hPa 0,0 l/m 0 min 0 min 0 W/m 4,5 km/h (1 Bft) 97,87 %
18.09.2018 19:52 25,5 C 23,3 C 22,8 C 51 % 1011,4 hPa 0,0 l/m 0 min 0 min 0 W/m 4,5 km/h (1 Bft) 97,87 %
18.09.2018 19:54 25,4 C 23,3 C 22,8 C 52 % 1011,5 hPa 0,0 l/m 0 min 0 min 0 W/m 9,0 km/h (2 Bft) 100,00 %
18.09.2018 19:56 25,3 C 23,3 C 22,8 C 52 % 1011,5 hPa 0,0 l/m 0 min 0 min 0 W/m 4,5 km/h (1 Bft) 97,87 %
18.09.2018 19:58 25,2 C 23,3 C 22,8 C 52 % 1011,5 hPa 0,0 l/m 0 min 0 min 0 W/m 4,5 km/h (1 Bft) 100,00 %
18.09.2018 20:00 25,1 C 23,3 C 22,8 C 52 % 1011,5 hPa 0,0 l/m 0 min 0 min 0 W/m 6,8 km/h (2 Bft) 100,00 %
18.09.2018 20:04 25,1 C 23,3 C 22,8 C 53 % 1011,7 hPa 0,0 l/m 0 min 0 min 0 W/m 2,3 km/h (1 Bft) 96,77 %
18.09.2018 20:06 25,0 C 23,3 C 22,8 C 53 % 1011,7 hPa 0,0 l/m 0 min 0 min 0 W/m 4,5 km/h (1 Bft) 100,00 %
18.09.2018 20:08 24,9 C 22,8 C 22,8 C 54 % 1011,8 hPa 0,0 l/m 0 min 0 min 0 W/m 0,0 km/h (0 Bft) 100,00 %
18.09.2018 20:10 24,9 C 22,8 C 22,2 C 54 % 1011,9 hPa 0,0 l/m 0 min 0 min 0 W/m 4,5 km/h (1 Bft) 100,00 %
18.09.2018 20:12 24,8 C 22,8 C 22,2 C 54 % 1011,9 hPa 0,0 l/m 0 min 0 min 0 W/m 2,3 km/h (1 Bft) 100,00 %
18.09.2018 20:14 24,7 C 22,8 C 22,2 C 55 % 1011,9 hPa 0,0 l/m 0 min 0 min 0 W/m 2,3 km/h (1 Bft) 100,00 %
18.09.2018 20:16 24,7 C 22,8 C 22,2 C 55 % 1011,9 hPa 0,0 l/m 0 min 0 min 0 W/m 2,3 km/h (1 Bft) 97,83 %
18.09.2018 20:18 24,6 C 22,2 C 21,7 C 56 % 1012,0 hPa 0,0 l/m 0 min 0 min 0 W/m 0,0 km/h (0 Bft) 100,00 %
18.09.2018 20:20 24,5 C 22,2 C 21,7 C 56 % 1011,9 hPa 0,0 l/m 0 min 0 min 0 W/m 2,3 km/h (1 Bft) 100,00 %
18.09.2018 20:22 24,4 C 22,2 C 21,7 C 56 % 1012,1 hPa 0,0 l/m 0 min 0 min 0 W/m 6,8 km/h (2 Bft) 100,00 %
18.09.2018 20:24 24,4 C 22,2 C 21,7 C 56 % 1012,1 hPa 0,0 l/m 0 min 0 min 0 W/m 2,3 km/h (1 Bft) 100,00 %
18.09.2018 20:26 24,3 C 22,2 C 21,7 C 57 % 1012,2 hPa 0,0 l/m 0 min 0 min 0 W/m 0,0 km/h (0 Bft) 100,00 %
18.09.2018 20:28 24,2 C 22,2 C 21,7 C 57 % 1012,2 hPa 0,0 l/m 0 min 0 min 0 W/m 2,3 km/h (1 Bft) 100,00 %
18.09.2018 20:30 24,1 C 22,2 C 21,7 C 57 % 1012,2 hPa 0,0 l/m 0 min 0 min 0 W/m 2,3 km/h (1 Bft) 100,00 %
18.09.2018 20:32 24,1 C 22,2 C 21,7 C 57 % 1012,3 hPa 0,0 l/m 0 min 0 min 0 W/m 4,5 km/h (1 Bft) 100,00 %
18.09.2018 20:34 24,0 C 22,2 C 21,7 C 58 % 1012,3 hPa 0,0 l/m 0 min 0 min 0 W/m 2,3 km/h (1 Bft) 100,00 %
18.09.2018 20:36 23,9 C 22,2 C 21,1 C 58 % 1012,4 hPa 0,0 l/m 0 min 0 min 0 W/m 2,3 km/h (1 Bft) 100,00 %
18.09.2018 20:38 23,9 C 21,7 C 21,1 C 58 % 1012,4 hPa 0,0 l/m 0 min 0 min 0 W/m 2,3 km/h (1 Bft) 100,00 %
18.09.2018 20:40 23,8 C 21,7 C 21,1 C 59 % 1012,4 hPa 0,0 l/m 0 min 0 min 0 W/m 0,0 km/h (0 Bft) 100,00 %
18.09.2018 20:42 23,8 C 21,7 C 20,6 C 59 % 1012,4 hPa 0,0 l/m 0 min 0 min 0 W/m 2,3 km/h (1 Bft) 97,87 %
18.09.2018 20:44 23,7 C 21,7 C 20,6 C 59 % 1012,5 hPa 0,0 l/m 0 min 0 min 0 W/m 2,3 km/h (1 Bft) 100,00 %
18.09.2018 20:46 23,6 C 21,7 C 20,6 C 60 % 1012,6 hPa 0,0 l/m 0 min 0 min 0 W/m 2,3 km/h (1 Bft) 100,00 %
18.09.2018 20:48 23,6 C 21,1 C 20,6 C 60 % 1012,5 hPa 0,0 l/m 0 min 0 min 0 W/m 2,3 km/h (1 Bft) 100,00 %
18.09.2018 20:50 23,5 C 21,1 C 20,6 C 60 % 1012,6 hPa 0,0 l/m 0 min 0 min 0 W/m 0,0 km/h (0 Bft) 100,00 %
18.09.2018 20:52 23,4 C 21,1 C 20,6 C 61 % 1012,7 hPa 0,0 l/m 0 min 0 min 0 W/m 2,3 km/h (1 Bft) 100,00 %
18.09.2018 20:54 23,4 C 21,1 C 20,6 C 60 % 1012,6 hPa 0,0 l/m 0 min 0 min 0 W/m 2,3 km/h (1 Bft) 100,00 %
18.09.2018 20:56 23,3 C 21,1 C 20,0 C 61 % 1012,7 hPa 0,0 l/m 0 min 0 min 0 W/m 0,0 km/h (0 Bft) 100,00 %
18.09.2018 20:58 23,2 C 21,1 C 20,0 C 61 % 1012,8 hPa 0,0 l/m 0 min 0 min 0 W/m 0,0 km/h (0 Bft) 100,00 %
18.09.2018 21:00 23,2 C 20,6 C 20,0 C 62 % 1012,8 hPa 0,0 l/m 0 min 0 min 0 W/m 2,3 km/h (1 Bft) 100,00 %
18.09.2018 21:02 23,1 C 20,6 C 20,0 C 62 % 1012,8 hPa 0,0 l/m 0 min 0 min 0 W/m 0,0 km/h (0 Bft) 100,00 %
18.09.2018 21:04 23,0 C 20,6 C 19,4 C 62 % 1012,8 hPa 0,0 l/m 0 min 0 min 0 W/m 2,3 km/h (1 Bft) 100,00 %
18.09.2018 21:06 22,9 C 20,6 C 20,0 C 62 % 1012,8 hPa 0,0 l/m 0 min 0 min 0 W/m 0,0 km/h (0 Bft) 100,00 %
18.09.2018 21:08 22,8 C 20,6 C 20,0 C 62 % 1012,9 hPa 0,0 l/m 0 min 0 min 0 W/m 2,3 km/h (1 Bft) 100,00 %
18.09.2018 21:10 22,8 C 20,6 C 20,0 C 62 % 1012,9 hPa 0,0 l/m 0 min 0 min 0 W/m 2,3 km/h (1 Bft) 100,00 %
18.09.2018 21:12 22,7 C 20,6 C 20,0 C 62 % 1012,9 hPa 0,0 l/m 0 min 0 min 0 W/m 0,0 km/h (0 Bft) 100,00 %
18.09.2018 21:14 22,7 C 20,6 C 20,0 C 63 % 1012,8 hPa 0,0 l/m 0 min 0 min 0 W/m 2,3 km/h (1 Bft) 100,00 %
18.09.2018 21:16 22,6 C 20,6 C 20,0 C 63 % 1012,9 hPa 0,0 l/m 0 min 0 min 0 W/m 0,0 km/h (0 Bft) 100,00 %
18.09.2018 21:18 22,6 C 20,6 C 20,0 C 63 % 1012,9 hPa 0,0 l/m 0 min 0 min 0 W/m 2,3 km/h (1 Bft) 100,00 %
18.09.2018 21:20 22,5 C 20,6 C 20,0 C 63 % 1012,9 hPa 0,0 l/m 0 min 0 min 0 W/m 0,0 km/h (0 Bft) 100,00 %
18.09.2018 21:22 22,4 C 20,6 C 20,0 C 64 % 1012,9 hPa 0,0 l/m 0 min 0 min 0 W/m 0,0 km/h (0 Bft) 100,00 %
18.09.2018 21:24 22,3 C 20,6 C 19,4 C 64 % 1013,0 hPa 0,0 l/m 0 min 0 min 0 W/m 0,0 km/h (0 Bft) 100,00 %
18.09.2018 21:26 22,3 C 20,6 C 19,4 C 64 % 1013,0 hPa 0,0 l/m 0 min 0 min 0 W/m 4,5 km/h (1 Bft) 97,87 %
18.09.2018 21:28 22,2 C 20,6 C 19,4 C 64 % 1013,0 hPa 0,0 l/m 0 min 0 min 0 W/m 0,0 km/h (0 Bft) 97,83 %
18.09.2018 21:30 22,2 C 20,6 C 19,4 C 64 % 1013,0 hPa 0,0 l/m 0 min 0 min 0 W/m 0,0 km/h (0 Bft) 97,87 %
18.09.2018 21:32 22,2 C 20,0 C 19,4 C 64 % 1013,0 hPa 0,0 l/m 0 min 0 min 0 W/m 0,0 km/h (0 Bft) 95,74 %
18.09.2018 21:34 22,1 C 20,0 C 19,4 C 64 % 1013,0 hPa 0,0 l/m 0 min 0 min 0 W/m 0,0 km/h (0 Bft) 97,14 %
18.09.2018 21:36 22,1 C 20,0 C 19,4 C 65 % 1013,0 hPa 0,0 l/m 0 min 0 min 0 W/m 0,0 km/h (0 Bft) 95,74 %
18.09.2018 21:38 22,0 C 20,0 C 19,4 C 65 % 1013,1 hPa 0,0 l/m 0 min 0 min 0 W/m 0,0 km/h (0 Bft) 95,74 %
18.09.2018 21:40 22,0 C 20,0 C 18,9 C 65 % 1013,1 hPa 0,0 l/m 0 min 0 min 0 W/m 0,0 km/h (0 Bft) 97,87 %
18.09.2018 21:42 21,9 C 20,0 C 18,9 C 65 % 1013,1 hPa 0,0 l/m 0 min 0 min 0 W/m 0,0 km/h (0 Bft) 97,87 %
18.09.2018 21:44 21,9 C 19,4 C 18,9 C 65 % 1013,1 hPa 0,0 l/m 0 min 0 min 0 W/m 0,0 km/h (0 Bft) 95,65 %
18.09.2018 21:46 21,8 C 19,4 C 18,9 C 65 % 1013,2 hPa 0,0 l/m 0 min 0 min 0 W/m 0,0 km/h (0 Bft) 93,62 %
18.09.2018 21:48 21,8 C 19,4 C 18,9 C 66 % 1013,2 hPa 0,0 l/m 0 min 0 min 0 W/m 0,0 km/h (0 Bft) 97,87 %
18.09.2018 21:50 21,7 C 19,4 C 18,9 C 66 % 1013,3 hPa 0,0 l/m 0 min 0 min 0 W/m 0,0 km/h (0 Bft) 96,61 %
18.09.2018 21:52 21,7 C 19,4 C 18,3 C 66 % 1013,2 hPa 0,0 l/m 0 min 0 min 0 W/m 0,0 km/h (0 Bft) 93,48 %
18.09.2018 21:54 21,6 C 19,4 C 18,3 C 66 % 1013,3 hPa 0,0 l/m 0 min 0 min 0 W/m 0,0 km/h (0 Bft) 93,62 %
18.09.2018 21:56 21,6 C 18,9 C 18,3 C 66 % 1013,3 hPa 0,0 l/m 0 min 0 min 0 W/m 0,0 km/h (0 Bft) 91,43 %
18.09.2018 21:58 21,5 C 18,9 C 18,3 C 66 % 1013,3 hPa 0,0 l/m 0 min 0 min 0 W/m 0,0 km/h (0 Bft) 93,62 %
18.09.2018 22:00 21,4 C 18,9 C 18,3 C 67 % 1013,3 hPa 0,0 l/m 0 min 0 min 0 W/m 0,0 km/h (0 Bft) 94,92 %
18.09.2018 22:02 21,3 C 18,9 C 18,3 C 67 % 1013,3 hPa 0,0 l/m 0 min 0 min 0 W/m 0,0 km/h (0 Bft) 91,49 %
18.09.2018 22:04 21,3 C 18,9 C 18,3 C 67 % 1013,3 hPa 0,0 l/m 0 min 0 min 0 W/m 0,0 km/h (0 Bft) 94,29 %
18.09.2018 22:06 21,2 C 18,9 C 18,3 C 67 % 1013,3 hPa 0,0 l/m 0 min 0 min 0 W/m 0,0 km/h (0 Bft) 90,57 %
18.09.2018 22:08 21,2 C 18,9 C 17,8 C 67 % 1013,3 hPa 0,0 l/m 0 min 0 min 0 W/m 0,0 km/h (0 Bft) 93,62 %
18.09.2018 22:10 21,1 C 18,9 C 17,8 C 67 % 1013,4 hPa 0,0 l/m 0 min 0 min 0 W/m 0,0 km/h (0 Bft) 93,62 %
18.09.2018 22:12 21,0 C 18,9 C 17,8 C 68 % 1013,4 hPa 0,0 l/m 0 min 0 min 0 W/m 0,0 km/h (0 Bft) 93,48 %
18.09.2018 22:14 20,9 C 18,9 C 17,8 C 68 % 1013,4 hPa 0,0 l/m 0 min 0 min 0 W/m 0,0 km/h (0 Bft) 93,62 %
18.09.2018 22:16 20,9 C 18,3 C 17,8 C 68 % 1013,4 hPa 0,0 l/m 0 min 0 min 0 W/m 0,0 km/h (0 Bft) 93,62 %
18.09.2018 22:18 20,8 C 18,3 C 17,8 C 69 % 1013,4 hPa 0,0 l/m 0 min 0 min 0 W/m 0,0 km/h (0 Bft) 93,62 %
18.09.2018 22:20 20,8 C 18,3 C 17,8 C 69 % 1013,5 hPa 0,0 l/m 0 min 0 min 0 W/m 0,0 km/h (0 Bft) 93,62 %
18.09.2018 22:22 20,7 C 18,3 C 17,8 C 69 % 1013,4 hPa 0,0 l/m 0 min 0 min 0 W/m 0,0 km/h (0 Bft) 91,67 %
18.09.2018 22:24 20,6 C 18,3 C 17,8 C 69 % 1013,5 hPa 0,0 l/m 0 min 0 min 0 W/m 0,0 km/h (0 Bft) 91,84 %
18.09.2018 22:26 20,6 C 18,3 C 17,8 C 70 % 1013,5 hPa 0,0 l/m 0 min 0 min 0 W/m 0,0 km/h (0 Bft) 93,62 %
18.09.2018 22:28 20,5 C 18,3 C 17,2 C 70 % 1013,5 hPa 0,0 l/m 0 min 0 min 0 W/m 0,0 km/h (0 Bft) 95,74 %
18.09.2018 22:30 20,4 C 18,3 C 17,2 C 71 % 1013,5 hPa 0,0 l/m 0 min 0 min 0 W/m 0,0 km/h (0 Bft) 95,74 %
18.09.2018 22:32 20,3 C 17,8 C 17,2 C 71 % 1013,4 hPa 0,0 l/m 0 min 0 min 0 W/m 0,0 km/h (0 Bft) 93,62 %
18.09.2018 22:34 20,3 C 17,8 C 17,2 C 71 % 1013,5 hPa 0,0 l/m 0 min 0 min 0 W/m 0,0 km/h (0 Bft) 97,87 %
18.09.2018 22:36 20,2 C 17,8 C 17,2 C 71 % 1013,5 hPa 0,0 l/m 0 min 0 min 0 W/m 0,0 km/h (0 Bft) 97,83 %
18.09.2018 22:38 20,1 C 17,8 C 17,2 C 71 % 1013,4 hPa 0,0 l/m 0 min 0 min 0 W/m 0,0 km/h (0 Bft) 97,87 %
18.09.2018 22:40 20,1 C 17,8 C 17,2 C 72 % 1013,4 hPa 0,0 l/m 0 min 0 min 0 W/m 0,0 km/h (0 Bft) 97,87 %
18.09.2018 22:42 20,0 C 17,8 C 17,2 C 72 % 1013,4 hPa 0,0 l/m 0 min 0 min 0 W/m 0,0 km/h (0 Bft) 95,74 %
18.09.2018 22:44 19,9 C 17,8 C 17,2 C 72 % 1013,4 hPa 0,0 l/m 0 min 0 min 0 W/m 0,0 km/h (0 Bft) 100,00 %
18.09.2018 22:46 19,9 C 17,8 C 17,2 C 72 % 1013,5 hPa 0,0 l/m 0 min 0 min 0 W/m 0,0 km/h (0 Bft) 95,74 %
18.09.2018 22:48 19,8 C 17,8 C 17,2 C 72 % 1013,5 hPa 0,0 l/m 0 min 0 min 0 W/m 0,0 km/h (0 Bft) 100,00 %
18.09.2018 22:50 19,8 C 17,8 C 17,2 C 72 % 1013,5 hPa 0,0 l/m 0 min 0 min 0 W/m 0,0 km/h (0 Bft) 100,00 %
18.09.2018 22:52 19,7 C 17,8 C 17,2 C 72 % 1013,6 hPa 0,0 l/m 0 min 0 min 0 W/m 0,0 km/h (0 Bft) 97,87 %
18.09.2018 22:54 19,6 C 17,8 C 16,7 C 72 % 1013,6 hPa 0,0 l/m 0 min 0 min 0 W/m 0,0 km/h (0 Bft) 100,00 %
18.09.2018 22:56 19,6 C 17,2 C 16,7 C 73 % 1013,5 hPa 0,0 l/m 0 min 0 min 0 W/m 0,0 km/h (0 Bft) 95,74 %
18.09.2018 22:58 19,5 C 17,2 C 16,7 C 73 % 1013,6 hPa 0,0 l/m 0 min 0 min 0 W/m 0,0 km/h (0 Bft) 100,00 %
18.09.2018 23:00 19,4 C 17,2 C 16,7 C 73 % 1013,6 hPa 0,0 l/m 0 min 0 min 0 W/m 0,0 km/h (0 Bft) 100,00 %
18.09.2018 23:02 19,4 C 17,2 C 16,7 C 74 % 1013,6 hPa 0,0 l/m 0 min 0 min 0 W/m 0,0 km/h (0 Bft) 100,00 %
18.09.2018 23:04 19,3 C 17,2 C 16,7 C 74 % 1013,6 hPa 0,0 l/m 0 min 0 min 0 W/m 0,0 km/h (0 Bft) 97,87 %
18.09.2018 23:06 19,3 C 17,2 C 16,7 C 74 % 1013,6 hPa 0,0 l/m 0 min 0 min 0 W/m 0,0 km/h (0 Bft) 100,00 %
18.09.2018 23:08 19,2 C 17,2 C 16,7 C 74 % 1013,7 hPa 0,0 l/m 0 min 0 min 0 W/m 0,0 km/h (0 Bft) 100,00 %
18.09.2018 23:10 19,2 C 17,2 C 16,7 C 74 % 1013,7 hPa 0,0 l/m 0 min 0 min 0 W/m 0,0 km/h (0 Bft) 100,00 %
18.09.2018 23:12 19,1 C 17,2 C 16,7 C 74 % 1013,7 hPa 0,0 l/m 0 min 0 min 0 W/m 0,0 km/h (0 Bft) 100,00 %
18.09.2018 23:14 19,1 C 17,2 C 16,7 C 74 % 1013,7 hPa 0,0 l/m 0 min 0 min 0 W/m 0,0 km/h (0 Bft) 97,83 %
18.09.2018 23:16 19,0 C 17,2 C 16,7 C 75 % 1013,8 hPa 0,0 l/m 0 min 0 min 0 W/m 0,0 km/h (0 Bft) 100,00 %
18.09.2018 23:18 18,9 C 17,2 C 16,7 C 75 % 1013,8 hPa 0,0 l/m 0 min 0 min 0 W/m 0,0 km/h (0 Bft) 100,00 %
18.09.2018 23:20 18,9 C 17,2 C 16,7 C 75 % 1013,8 hPa 0,0 l/m 0 min 0 min 0 W/m 0,0 km/h (0 Bft) 100,00 %
18.09.2018 23:22 18,8 C 17,2 C 16,7 C 75 % 1013,8 hPa 0,0 l/m 0 min 0 min 0 W/m 0,0 km/h (0 Bft) 100,00 %
18.09.2018 23:24 18,8 C 17,2 C 16,7 C 75 % 1013,9 hPa 0,0 l/m 0 min 0 min 0 W/m 0,0 km/h (0 Bft) 100,00 %
18.09.2018 23:26 18,8 C 17,2 C 16,7 C 75 % 1013,8 hPa 0,0 l/m 0 min 0 min 0 W/m 0,0 km/h (0 Bft) 100,00 %
18.09.2018 23:28 18,7 C 17,2 C 16,7 C 75 % 1013,9 hPa 0,0 l/m 0 min 0 min 0 W/m 0,0 km/h (0 Bft) 100,00 %
18.09.2018 23:30 18,7 C 17,2 C 16,7 C 75 % 1013,9 hPa 0,0 l/m 0 min 0 min 0 W/m 2,3 km/h (1 Bft) 100,00 %
18.09.2018 23:32 18,7 C 17,2 C 16,7 C 75 % 1014,0 hPa 0,0 l/m 0 min 0 min 0 W/m 0,0 km/h (0 Bft) 100,00 %
18.09.2018 23:34 18,6 C 17,2 C 16,7 C 76 % 1014,0 hPa 0,0 l/m 0 min 0 min 0 W/m 0,0 km/h (0 Bft) 97,87 %
18.09.2018 23:36 18,6 C 17,2 C 16,7 C 76 % 1014,0 hPa 0,0 l/m 0 min 0 min 0 W/m 0,0 km/h (0 Bft) 100,00 %
18.09.2018 23:38 18,5 C 17,2 C 16,7 C 76 % 1014,0 hPa 0,0 l/m 0 min 0 min 0 W/m 0,0 km/h (0 Bft) 100,00 %
18.09.2018 23:40 18,5 C 17,2 C 16,7 C 76 % 1014,0 hPa 0,0 l/m 0 min 0 min 0 W/m 0,0 km/h (0 Bft) 100,00 %
18.09.2018 23:42 18,4 C 17,2 C 16,7 C 76 % 1014,0 hPa 0,0 l/m 0 min 0 min 0 W/m 0,0 km/h (0 Bft) 100,00 %
18.09.2018 23:44 18,4 C 17,2 C 16,7 C 76 % 1014,0 hPa 0,0 l/m 0 min 0 min 0 W/m 0,0 km/h (0 Bft) 100,00 %
18.09.2018 23:46 18,4 C 17,2 C 16,7 C 76 % 1014,0 hPa 0,0 l/m 0 min 0 min 0 W/m 0,0 km/h (0 Bft) 97,87 %
18.09.2018 23:48 18,3 C 16,7 C 16,7 C 76 % 1014,0 hPa 0,0 l/m 0 min 0 min 0 W/m 0,0 km/h (0 Bft) 100,00 %
18.09.2018 23:50 18,3 C 16,7 C 16,7 C 76 % 1014,0 hPa 0,0 l/m 0 min 0 min 0 W/m 0,0 km/h (0 Bft) 100,00 %
18.09.2018 23:52 18,3 C 16,7 C 16,7 C 76 % 1014,1 hPa 0,0 l/m 0 min 0 min 0 W/m 0,0 km/h (0 Bft) 97,87 %
18.09.2018 23:54 18,3 C 16,7 C 16,7 C 76 % 1014,1 hPa 0,0 l/m 0 min 0 min 0 W/m 0,0 km/h (0 Bft) 100,00 %
18.09.2018 23:56 18,2 C 17,2 C 16,7 C 77 % 1014,1 hPa 0,0 l/m 0 min 0 min 0 W/m 0,0 km/h (0 Bft) 100,00 %
18.09.2018 23:58 18,2 C 16,7 C 16,1 C 77 % 1014,1 hPa 0,0 l/m 0 min 0 min 0 W/m 0,0 km/h (0 Bft) 100,00 %
_ Min-Zeit 07:40 02:17 00:00 15:56 15:14 - - - - 20:08 12:08
Minimum _ 15,7 C 15,0 C 14,4 C 39 % 1009,2 hPa - - - - 0,0 km/h (0 Bft) 87,50 %
_ Max-Zeit 15:34 11:54 14:38 07:36 23:52 00:00 09:40 00:00 13:50 14:16 00:00
Maximum _ 30,7 C 36,1 C 27,8 C 77 % 1014,1 hPa 0,0 l/m 2 min 0 min 616 W/m 18,0 km/h
N (3 Bft)
100,00 %
Durchschnitt _ 22,2 C 22,2 C 19,8 C 62 % 1010,9 hPa #0,0 l/m #7:18 h #0 min. 275 W/m 7,7 km/h (2 Bft) 97,55 %
© 2018 W. Hausmann